Time,TemperatureF,DewpointF,PressureIn,WindDirection,WindDirectionDegrees,WindSpeedMPH,WindSpeedGustMPH,Humidity,HourlyPrecipIn,Conditions,Clouds,dailyrainin,SoftwareType,DateUTC
2013-01-20 00:00:00,42.4,36.7,30.10,SW,233,0.0,0.0,80,0.00,,---,0.00,VWS V14.01,2013-01-20 06:00:00,
2013-01-20 00:03:00,41.9,36.8,30.10,SW,233,0.0,0.0,82,0.00,,---,0.00,VWS V14.01,2013-01-20 06:03:00,
2013-01-20 00:05:00,41.6,36.5,30.10,SW,233,0.0,0.0,82,0.00,,---,0.00,VWS V14.01,2013-01-20 06:05:00,
2013-01-20 00:08:00,41.4,36.6,30.10,SW,233,0.0,0.0,83,0.00,,---,0.00,VWS V14.01,2013-01-20 06:08:00,
2013-01-20 00:09:00,41.3,36.8,30.10,SW,233,1.0,1.0,84,0.00,,---,0.00,VWS V14.01,2013-01-20 06:09:00,
2013-01-20 00:10:00,41.3,36.8,30.10,SW,233,2.0,2.0,84,0.00,,---,0.00,VWS V14.01,2013-01-20 06:10:00,
2013-01-20 00:13:00,41.4,36.9,30.10,SW,233,0.0,2.0,84,0.00,,---,0.00,VWS V14.01,2013-01-20 06:13:00,
2013-01-20 00:14:00,41.5,37.3,30.11,SW,233,1.0,2.0,85,0.00,,---,0.00,VWS V14.01,2013-01-20 06:14:00,
2013-01-20 00:15:00,41.7,37.5,30.11,SW,233,2.0,2.0,85,0.00,,---,0.00,VWS V14.01,2013-01-20 06:15:00,
2013-01-20 00:18:00,42.0,37.5,30.10,SW,233,0.0,2.0,84,0.00,,---,0.00,VWS V14.01,2013-01-20 06:18:00,
2013-01-20 00:19:00,41.9,37.1,30.11,SW,233,0.0,2.0,83,0.00,,---,0.00,VWS V14.01,2013-01-20 06:19:00,
2013-01-20 00:20:00,41.6,36.8,30.11,SW,233,1.0,2.0,83,0.00,,---,0.00,VWS V14.01,2013-01-20 06:20:00,
2013-01-20 00:23:00,41.0,36.5,30.11,SW,233,0.0,2.0,84,0.00,,---,0.00,VWS V14.01,2013-01-20 06:23:00,
2013-01-20 00:24:00,40.8,36.3,30.11,SW,233,0.0,2.0,84,0.00,,---,0.00,VWS V14.01,2013-01-20 06:24:00,
2013-01-20 00:25:00,40.6,36.2,30.11,SW,233,2.0,2.0,84,0.00,,---,0.00,VWS V14.01,2013-01-20 06:25:00,
2013-01-20 00:28:00,40.6,37.0,30.11,WSW,251,1.0,1.0,87,0.00,,---,0.00,VWS V14.01,2013-01-20 06:28:00,
2013-01-20 00:29:00,40.6,37.0,30.11,WSW,258,2.0,2.0,87,0.00,,---,0.00,VWS V14.01,2013-01-20 06:29:00,
2013-01-20 00:30:00,40.4,36.3,30.11,WSW,258,0.0,2.0,85,0.00,,---,0.00,VWS V14.01,2013-01-20 06:30:00,
2013-01-20 00:34:00,39.7,35.9,30.11,WSW,258,0.0,2.0,86,0.00,,---,0.00,VWS V14.01,2013-01-20 06:34:00,
2013-01-20 00:35:00,39.7,35.9,30.11,WSW,258,0.0,2.0,86,0.00,,---,0.00,VWS V14.01,2013-01-20 06:35:00,
2013-01-20 00:36:00,39.5,35.7,30.11,WSW,258,0.0,2.0,86,0.00,,---,0.00,VWS V14.01,2013-01-20 06:36:00,
2013-01-20 00:39:00,39.1,35.6,30.11,WSW,258,0.0,2.0,87,0.00,,---,0.00,VWS V14.01,2013-01-20 06:39:00,
2013-01-20 00:40:00,38.9,35.4,30.11,WSW,258,0.0,2.0,87,0.00,,---,0.00,VWS V14.01,2013-01-20 06:40:00,
2013-01-20 00:41:00,39.0,35.8,30.11,WSW,258,0.0,2.0,88,0.00,,---,0.00,VWS V14.01,2013-01-20 06:41:00,
2013-01-20 00:44:00,39.1,35.8,30.12,WSW,258,1.0,2.0,88,0.00,,---,0.00,VWS V14.01,2013-01-20 06:44:00,
2013-01-20 00:45:00,39.1,35.8,30.12,WSW,258,0.0,2.0,88,0.00,,---,0.00,VWS V14.01,2013-01-20 06:45:00,
2013-01-20 00:47:00,39.0,35.8,30.12,WSW,258,0.0,2.0,88,0.00,,---,0.00,VWS V14.01,2013-01-20 06:47:00,
2013-01-20 00:49:00,39.1,36.1,30.12,WSW,258,0.0,2.0,89,0.00,,---,0.00,VWS V14.01,2013-01-20 06:49:00,
2013-01-20 00:50:00,39.1,36.1,30.12,WSW,258,0.0,2.0,89,0.00,,---,0.00,VWS V14.01,2013-01-20 06:50:00,
2013-01-20 00:52:00,39.2,36.2,30.12,WSW,258,2.0,2.0,89,0.00,,---,0.00,VWS V14.01,2013-01-20 06:52:00,
2013-01-20 00:55:00,38.9,35.7,30.12,WSW,258,2.0,3.0,88,0.00,,---,0.00,VWS V14.01,2013-01-20 06:55:00,
2013-01-20 00:57:00,38.6,35.4,30.12,WSW,258,3.0,3.0,88,0.00,,---,0.00,VWS V14.01,2013-01-20 06:57:00,
2013-01-20 01:00:00,38.4,35.5,30.12,WSW,258,1.0,3.0,89,0.00,,---,0.00,VWS V14.01,2013-01-20 07:00:00,
2013-01-20 01:02:00,38.2,35.2,30.12,WSW,258,0.0,3.0,89,0.00,,---,0.00,VWS V14.01,2013-01-20 07:02:00,
2013-01-20 01:05:00,38.0,35.0,30.12,WSW,258,0.0,3.0,89,0.00,,---,0.00,VWS V14.01,2013-01-20 07:05:00,
2013-01-20 01:08:00,37.9,35.0,30.13,WSW,258,0.0,3.0,89,0.00,,---,0.00,VWS V14.01,2013-01-20 07:08:00,
2013-01-20 01:10:00,37.9,35.0,30.13,WSW,258,0.0,3.0,89,0.00,,---,0.00,VWS V14.01,2013-01-20 07:10:00,
2013-01-20 01:13:00,37.7,34.8,30.13,WSW,258,0.0,3.0,89,0.00,,---,0.00,VWS V14.01,2013-01-20 07:13:00,
2013-01-20 01:15:00,37.7,35.0,30.13,WSW,258,0.0,3.0,90,0.00,,---,0.00,VWS V14.01,2013-01-20 07:15:00,
2013-01-20 01:18:00,37.4,34.7,30.13,WSW,258,0.0,3.0,90,0.00,,---,0.00,VWS V14.01,2013-01-20 07:18:00,
2013-01-20 01:20:00,37.1,34.4,30.13,WSW,258,0.0,3.0,90,0.00,,---,0.00,VWS V14.01,2013-01-20 07:20:00,
2013-01-20 01:21:00,37.0,34.3,30.13,WSW,258,0.0,3.0,90,0.00,,---,0.00,VWS V14.01,2013-01-20 07:21:00,
2013-01-20 01:23:00,36.9,34.5,30.13,WSW,258,0.0,3.0,91,0.00,,---,0.00,VWS V14.01,2013-01-20 07:23:00,
2013-01-20 01:25:00,37.0,34.6,30.14,WSW,258,0.0,3.0,91,0.00,,---,0.00,VWS V14.01,2013-01-20 07:25:00,
2013-01-20 01:26:00,37.1,34.7,30.14,WSW,258,0.0,3.0,91,0.00,,---,0.00,VWS V14.01,2013-01-20 07:26:00,
2013-01-20 01:28:00,37.0,34.6,30.14,WSW,258,2.0,2.0,91,0.00,,---,0.00,VWS V14.01,2013-01-20 07:28:00,
2013-01-20 01:30:00,37.0,34.6,30.14,WSW,258,2.0,2.0,91,0.00,,---,0.00,VWS V14.01,2013-01-20 07:30:00,
2013-01-20 01:31:00,37.0,34.6,30.14,WSW,258,1.0,2.0,91,0.00,,---,0.00,VWS V14.01,2013-01-20 07:31:00,
2013-01-20 01:34:00,36.8,34.4,30.14,WSW,258,2.0,2.0,91,0.00,,---,0.00,VWS V14.01,2013-01-20 07:34:00,
2013-01-20 01:35:00,36.7,34.3,30.14,WSW,258,1.0,2.0,91,0.00,,---,0.00,VWS V14.01,2013-01-20 07:35:00,
2013-01-20 01:36:00,36.6,34.2,30.14,WSW,258,1.0,2.0,91,0.00,,---,0.00,VWS V14.01,2013-01-20 07:36:00,
2013-01-20 01:39:00,36.6,34.2,30.14,WSW,258,0.0,2.0,91,0.00,,---,0.00,VWS V14.01,2013-01-20 07:39:00,
2013-01-20 01:40:00,36.7,34.6,30.14,WSW,258,3.0,3.0,92,0.00,,---,0.00,VWS V14.01,2013-01-20 07:40:00,
2013-01-20 01:41:00,36.7,34.6,30.14,WSW,258,2.0,3.0,92,0.00,,---,0.00,VWS V14.01,2013-01-20 07:41:00,
2013-01-20 01:42:00,36.7,34.6,30.14,WSW,258,2.0,3.0,92,0.00,,---,0.00,VWS V14.01,2013-01-20 07:42:00,
2013-01-20 01:44:00,36.9,34.8,30.14,WSW,258,2.0,3.0,92,0.00,,---,0.00,VWS V14.01,2013-01-20 07:44:00,
2013-01-20 01:45:00,36.8,34.7,30.14,WSW,258,2.0,3.0,92,0.00,,---,0.00,VWS V14.01,2013-01-20 07:45:00,
2013-01-20 01:46:00,36.8,34.7,30.14,WSW,258,2.0,3.0,92,0.00,,---,0.00,VWS V14.01,2013-01-20 07:46:00,
2013-01-20 01:47:00,36.8,34.7,30.14,WSW,258,2.0,3.0,92,0.00,,---,0.00,VWS V14.01,2013-01-20 07:47:00,
2013-01-20 01:49:00,36.4,34.0,30.14,WSW,258,0.0,3.0,91,0.00,,---,0.00,VWS V14.01,2013-01-20 07:49:00,
2013-01-20 01:51:00,36.2,34.1,30.14,WSW,258,0.0,3.0,92,0.00,,---,0.00,VWS V14.01,2013-01-20 07:51:00,
2013-01-20 01:52:00,36.2,34.1,30.15,WSW,258,0.0,3.0,92,0.00,,---,0.00,VWS V14.01,2013-01-20 07:52:00,
2013-01-20 01:54:00,36.6,34.8,30.15,WSW,258,0.0,3.0,93,0.00,,---,0.00,VWS V14.01,2013-01-20 07:54:00,
2013-01-20 01:56:00,37.1,35.3,30.15,WSW,258,0.0,3.0,93,0.00,,---,0.00,VWS V14.01,2013-01-20 07:56:00,
2013-01-20 01:57:00,37.1,35.3,30.15,WSW,258,0.0,3.0,93,0.00,,---,0.00,VWS V14.01,2013-01-20 07:57:00,
2013-01-20 01:59:00,37.4,35.3,30.15,WSW,258,0.0,0.0,92,0.00,,---,0.00,VWS V14.01,2013-01-20 07:59:00,
2013-01-20 02:00:00,37.3,35.5,30.15,WSW,258,0.0,3.0,93,0.00,,---,0.00,VWS V14.01,2013-01-20 08:00:00,
2013-01-20 02:01:00,37.4,35.3,30.15,WSW,258,0.0,0.0,92,0.00,,---,0.00,VWS V14.01,2013-01-20 08:01:00,
2013-01-20 02:02:00,37.4,35.3,30.15,WSW,258,0.0,0.0,92,0.00,,---,0.00,VWS V14.01,2013-01-20 08:02:00,
2013-01-20 02:04:00,37.4,35.3,30.15,WSW,258,0.0,0.0,92,0.00,,---,0.00,VWS V14.01,2013-01-20 08:04:00,
2013-01-20 02:06:00,37.4,35.3,30.15,WSW,258,0.0,0.0,92,0.00,,---,0.00,VWS V14.01,2013-01-20 08:06:00,
2013-01-20 02:07:00,37.4,35.3,30.15,WSW,258,0.0,0.0,92,0.00,,---,0.00,VWS V14.01,2013-01-20 08:07:00,
2013-01-20 02:09:00,37.3,34.9,30.15,WSW,258,0.0,0.0,91,0.00,,---,0.00,VWS V14.01,2013-01-20 08:09:00,
2013-01-20 02:12:00,37.0,34.6,30.15,WSW,258,0.0,0.0,91,0.00,,---,0.00,VWS V14.01,2013-01-20 08:12:00,
2013-01-20 02:14:00,36.8,34.4,30.15,WSW,258,0.0,0.0,91,0.00,,---,0.00,VWS V14.01,2013-01-20 08:14:00,
2013-01-20 02:17:00,35.9,33.5,30.15,WSW,258,0.0,0.0,91,0.00,,---,0.00,VWS V14.01,2013-01-20 08:17:00,
2013-01-20 02:18:00,35.8,33.4,30.15,WSW,258,0.0,0.0,91,0.00,,---,0.00,VWS V14.01,2013-01-20 08:18:00,
2013-01-20 02:19:00,35.6,33.2,30.15,WSW,258,0.0,0.0,91,0.00,,---,0.00,VWS V14.01,2013-01-20 08:19:00,
2013-01-20 02:22:00,35.8,33.7,30.15,WSW,258,0.0,0.0,92,0.00,,---,0.00,VWS V14.01,2013-01-20 08:22:00,
2013-01-20 02:23:00,35.8,33.7,30.15,WSW,258,0.0,0.0,92,0.00,,---,0.00,VWS V14.01,2013-01-20 08:23:00,
2013-01-20 02:25:00,35.5,33.4,30.15,WSW,258,0.0,0.0,92,0.00,,---,0.00,VWS V14.01,2013-01-20 08:25:00,
2013-01-20 02:27:00,35.4,33.3,30.15,WSW,258,0.0,0.0,92,0.00,,---,0.00,VWS V14.01,2013-01-20 08:27:00,
2013-01-20 02:28:00,35.5,33.7,30.15,WSW,258,0.0,0.0,93,0.00,,---,0.00,VWS V14.01,2013-01-20 08:28:00,
2013-01-20 02:30:00,35.5,33.7,30.15,WSW,258,0.0,0.0,93,0.00,,---,0.00,VWS V14.01,2013-01-20 08:30:00,
2013-01-20 02:32:00,35.5,33.7,30.15,WSW,258,0.0,0.0,93,0.00,,---,0.00,VWS V14.01,2013-01-20 08:32:00,
2013-01-20 02:33:00,35.5,33.7,30.15,WSW,258,0.0,0.0,93,0.00,,---,0.00,VWS V14.01,2013-01-20 08:33:00,
2013-01-20 02:35:00,35.2,33.1,30.15,WSW,258,0.0,0.0,92,0.00,,---,0.00,VWS V14.01,2013-01-20 08:35:00,
2013-01-20 02:37:00,35.1,33.0,30.15,WSW,258,0.0,0.0,92,0.00,,---,0.00,VWS V14.01,2013-01-20 08:37:00,
2013-01-20 02:38:00,35.0,33.2,30.15,WSW,258,0.0,0.0,93,0.00,,---,0.00,VWS V14.01,2013-01-20 08:38:00,
2013-01-20 02:40:00,34.6,32.5,30.15,WSW,258,0.0,0.0,92,0.00,,---,0.00,VWS V14.01,2013-01-20 08:40:00,
2013-01-20 02:42:00,34.4,32.6,30.15,WSW,258,0.0,0.0,93,0.00,,---,0.00,VWS V14.01,2013-01-20 08:42:00,
2013-01-20 02:43:00,34.4,32.6,30.15,WSW,258,0.0,0.0,93,0.00,,---,0.00,VWS V14.01,2013-01-20 08:43:00,
2013-01-20 02:44:00,34.4,32.6,30.15,WSW,258,0.0,0.0,93,0.00,,---,0.00,VWS V14.01,2013-01-20 08:44:00,
2013-01-20 02:46:00,34.6,32.8,30.15,WSW,258,0.0,0.0,93,0.00,,---,0.00,VWS V14.01,2013-01-20 08:46:00,
2013-01-20 02:47:00,34.7,33.2,30.15,WSW,258,0.0,0.0,94,0.00,,---,0.00,VWS V14.01,2013-01-20 08:47:00,
2013-01-20 02:48:00,34.9,33.3,30.15,WSW,258,0.0,0.0,94,0.00,,---,0.00,VWS V14.01,2013-01-20 08:48:00,
2013-01-20 02:49:00,34.9,33.3,30.15,WSW,258,0.0,0.0,94,0.00,,---,0.00,VWS V14.01,2013-01-20 08:49:00,
2013-01-20 02:51:00,35.1,33.5,30.15,WSW,258,0.0,0.0,94,0.00,,---,0.00,VWS V14.01,2013-01-20 08:51:00,
2013-01-20 02:52:00,35.2,33.7,30.16,WSW,258,0.0,0.0,94,0.00,,---,0.00,VWS V14.01,2013-01-20 08:52:00,
2013-01-20 02:54:00,35.2,33.7,30.16,WSW,258,0.0,0.0,94,0.00,,---,0.00,VWS V14.01,2013-01-20 08:54:00,
2013-01-20 02:55:00,35.2,33.7,30.16,WSW,258,0.0,0.0,94,0.00,,---,0.00,VWS V14.01,2013-01-20 08:55:00,
2013-01-20 02:56:00,35.2,33.7,30.16,WSW,258,0.0,0.0,94,0.00,,---,0.00,VWS V14.01,2013-01-20 08:56:00,
2013-01-20 02:57:00,35.2,33.7,30.16,WSW,258,0.0,0.0,94,0.00,,---,0.00,VWS V14.01,2013-01-20 08:57:00,
2013-01-20 02:59:00,34.7,32.9,30.16,WSW,258,0.0,0.0,93,0.00,,---,0.00,VWS V14.01,2013-01-20 08:59:00,
2013-01-20 03:00:00,34.7,33.2,30.16,WSW,258,0.0,0.0,94,0.00,,---,0.00,VWS V14.01,2013-01-20 09:00:00,
2013-01-20 03:01:00,34.7,33.2,30.16,WSW,258,0.0,0.0,94,0.00,,---,0.00,VWS V14.01,2013-01-20 09:01:00,
2013-01-20 03:02:00,34.7,33.2,30.16,WSW,258,0.0,0.0,94,0.00,,---,0.00,VWS V14.01,2013-01-20 09:02:00,
2013-01-20 03:04:00,34.7,33.2,30.16,WSW,258,0.0,0.0,94,0.00,,---,0.00,VWS V14.01,2013-01-20 09:04:00,
2013-01-20 03:06:00,34.6,33.0,30.16,WSW,258,0.0,0.0,94,0.00,,---,0.00,VWS V14.01,2013-01-20 09:06:00,
2013-01-20 03:08:00,34.6,33.0,30.16,WSW,258,0.0,0.0,94,0.00,,---,0.00,VWS V14.01,2013-01-20 09:08:00,
2013-01-20 03:09:00,34.6,33.0,30.16,WSW,258,0.0,0.0,94,0.00,,---,0.00,VWS V14.01,2013-01-20 09:09:00,
2013-01-20 03:11:00,34.7,33.2,30.16,WSW,258,0.0,0.0,94,0.00,,---,0.00,VWS V14.01,2013-01-20 09:11:00,
2013-01-20 03:13:00,35.0,33.5,30.16,WSW,258,0.0,0.0,94,0.00,,---,0.00,VWS V14.01,2013-01-20 09:13:00,
2013-01-20 03:14:00,35.3,34.0,30.16,WSW,258,0.0,0.0,95,0.00,,---,0.00,VWS V14.01,2013-01-20 09:14:00,
2013-01-20 03:16:00,35.2,33.7,30.16,WSW,258,1.0,1.0,94,0.00,,---,0.00,VWS V14.01,2013-01-20 09:16:00,
2013-01-20 03:17:00,34.9,33.3,30.16,WSW,258,0.0,2.0,94,0.00,,---,0.00,VWS V14.01,2013-01-20 09:17:00,
2013-01-20 03:18:00,34.9,33.3,30.16,WSW,258,1.0,2.0,94,0.00,,---,0.00,VWS V14.01,2013-01-20 09:18:00,
2013-01-20 03:19:00,35.0,33.5,30.16,WSW,258,0.0,2.0,94,0.00,,---,0.00,VWS V14.01,2013-01-20 09:19:00,
2013-01-20 03:21:00,35.1,33.5,30.16,WSW,258,0.0,2.0,94,0.00,,---,0.00,VWS V14.01,2013-01-20 09:21:00,
2013-01-20 03:23:00,35.3,33.8,30.16,WSW,258,0.0,2.0,94,0.00,,---,0.00,VWS V14.01,2013-01-20 09:23:00,
2013-01-20 03:24:00,35.4,33.8,30.16,WSW,258,1.0,2.0,94,0.00,,---,0.00,VWS V14.01,2013-01-20 09:24:00,
2013-01-20 03:26:00,35.6,34.0,30.16,WSW,258,0.0,2.0,94,0.00,,---,0.00,VWS V14.01,2013-01-20 09:26:00,
2013-01-20 03:28:00,35.7,34.2,30.16,WSW,258,0.0,2.0,94,0.00,,---,0.00,VWS V14.01,2013-01-20 09:28:00,
2013-01-20 03:29:00,35.9,34.3,30.16,WSW,258,0.0,0.0,94,0.00,,---,0.00,VWS V14.01,2013-01-20 09:29:00,
2013-01-20 03:30:00,36.1,34.5,30.16,WSW,258,0.0,0.0,94,0.00,,---,0.00,VWS V14.01,2013-01-20 09:30:00,
2013-01-20 03:31:00,35.9,34.1,30.16,WSW,258,0.0,0.0,93,0.00,,---,0.00,VWS V14.01,2013-01-20 09:31:00,
2013-01-20 03:33:00,35.7,33.6,30.16,WSW,258,0.0,0.0,92,0.00,,---,0.00,VWS V14.01,2013-01-20 09:33:00,
2013-01-20 03:34:00,35.8,33.7,30.16,WSW,258,0.0,0.0,92,0.00,,---,0.00,VWS V14.01,2013-01-20 09:34:00,
2013-01-20 03:35:00,35.8,33.7,30.16,WSW,258,0.0,0.0,92,0.00,,---,0.00,VWS V14.01,2013-01-20 09:35:00,
2013-01-20 03:36:00,35.8,33.7,30.16,WSW,258,0.0,0.0,92,0.00,,---,0.00,VWS V14.01,2013-01-20 09:36:00,
2013-01-20 03:38:00,35.5,33.1,30.16,WSW,258,0.0,0.0,91,0.00,,---,0.00,VWS V14.01,2013-01-20 09:38:00,
2013-01-20 03:39:00,35.2,32.8,30.16,WSW,258,0.0,0.0,91,0.00,,---,0.00,VWS V14.01,2013-01-20 09:39:00,
2013-01-20 03:40:00,34.9,32.5,30.16,WSW,258,0.0,0.0,91,0.00,,---,0.00,VWS V14.01,2013-01-20 09:40:00,
2013-01-20 03:42:00,34.4,32.0,30.16,WSW,258,0.0,0.0,91,0.00,,---,0.00,VWS V14.01,2013-01-20 09:42:00,
2013-01-20 03:43:00,34.4,32.3,30.16,WSW,258,0.0,0.0,92,0.00,,---,0.00,VWS V14.01,2013-01-20 09:43:00,
2013-01-20 03:44:00,34.4,32.3,30.16,WSW,258,0.0,0.0,92,0.00,,---,0.00,VWS V14.01,2013-01-20 09:44:00,
2013-01-20 03:45:00,34.2,32.1,30.17,WSW,258,0.0,0.0,92,0.00,,---,0.00,VWS V14.01,2013-01-20 09:45:00,
2013-01-20 03:47:00,34.0,31.9,30.17,WSW,258,0.0,0.0,92,0.00,,---,0.00,VWS V14.01,2013-01-20 09:47:00,
2013-01-20 03:48:00,33.9,32.1,30.16,WSW,258,0.0,0.0,93,0.00,,---,0.00,VWS V14.01,2013-01-20 09:48:00,
2013-01-20 03:49:00,33.9,32.1,30.16,WSW,258,0.0,0.0,93,0.00,,---,0.00,VWS V14.01,2013-01-20 09:49:00,
2013-01-20 03:50:00,34.1,32.3,30.16,WSW,258,0.0,1.0,93,0.00,,---,0.00,VWS V14.01,2013-01-20 09:50:00,
2013-01-20 03:52:00,34.9,33.3,30.16,WSW,258,0.0,1.0,94,0.00,,---,0.00,VWS V14.01,2013-01-20 09:52:00,
2013-01-20 03:53:00,35.1,33.5,30.16,WSW,258,0.0,1.0,94,0.00,,---,0.00,VWS V14.01,2013-01-20 09:53:00,
2013-01-20 03:55:00,35.4,33.8,30.17,NW,304,1.0,4.0,94,0.00,,---,0.00,VWS V14.01,2013-01-20 09:55:00,
2013-01-20 03:56:00,35.7,33.9,30.17,NW,304,3.0,4.0,93,0.00,,---,0.00,VWS V14.01,2013-01-20 09:56:00,
2013-01-20 03:57:00,36.2,34.4,30.16,WNW,300,0.0,4.0,93,0.00,,---,0.00,VWS V14.01,2013-01-20 09:57:00,
2013-01-20 03:58:00,36.1,34.0,30.16,WNW,300,0.0,2.0,92,0.00,,---,0.00,VWS V14.01,2013-01-20 09:58:00,
2013-01-20 03:59:00,36.4,33.8,30.16,WNW,300,1.0,2.0,90,0.00,,---,0.00,VWS V14.01,2013-01-20 09:59:00,
2013-01-20 04:00:00,36.2,34.1,30.16,WNW,300,0.0,4.0,92,0.00,,---,0.00,VWS V14.01,2013-01-20 10:00:00,
2013-01-20 04:01:00,36.8,34.2,30.16,WNW,300,0.0,2.0,90,0.00,,---,0.00,VWS V14.01,2013-01-20 10:01:00,
2013-01-20 04:02:00,36.9,33.7,30.16,WNW,300,0.0,2.0,88,0.00,,---,0.00,VWS V14.01,2013-01-20 10:02:00,
2013-01-20 04:03:00,37.2,34.0,30.17,WNW,300,0.0,2.0,88,0.00,,---,0.00,VWS V14.01,2013-01-20 10:03:00,
2013-01-20 04:05:00,37.8,34.0,30.17,WNW,300,0.0,2.0,86,0.00,,---,0.00,VWS V14.01,2013-01-20 10:05:00,
2013-01-20 04:06:00,38.0,33.9,30.17,WNW,300,0.0,2.0,85,0.00,,---,0.00,VWS V14.01,2013-01-20 10:06:00,
2013-01-20 04:07:00,38.5,34.1,30.17,WNW,300,1.0,2.0,84,0.00,,---,0.00,VWS V14.01,2013-01-20 10:07:00,
2013-01-20 04:09:00,38.7,33.7,30.17,WNW,300,0.0,2.0,82,0.00,,---,0.00,VWS V14.01,2013-01-20 10:09:00,
2013-01-20 04:10:00,38.7,33.4,30.17,WNW,300,2.0,2.0,81,0.00,,---,0.00,VWS V14.01,2013-01-20 10:10:00,
2013-01-20 04:11:00,38.7,33.4,30.17,WNW,293,3.0,3.0,81,0.00,,---,0.00,VWS V14.01,2013-01-20 10:11:00,
2013-01-20 04:12:00,38.7,33.4,30.17,WNW,293,1.0,4.0,81,0.00,,---,0.00,VWS V14.01,2013-01-20 10:12:00,
2013-01-20 04:14:00,38.8,33.2,30.17,WNW,293,2.0,4.0,80,0.00,,---,0.00,VWS V14.01,2013-01-20 10:14:00,
2013-01-20 04:15:00,38.8,33.2,30.17,WNW,293,3.0,4.0,80,0.00,,---,0.00,VWS V14.01,2013-01-20 10:15:00,
2013-01-20 04:16:00,38.8,33.2,30.17,WNW,293,2.0,4.0,80,0.00,,---,0.00,VWS V14.01,2013-01-20 10:16:00,
2013-01-20 04:17:00,38.7,32.8,30.17,West,271,3.0,5.0,79,0.00,,---,0.00,VWS V14.01,2013-01-20 10:17:00,
2013-01-20 04:19:00,38.7,32.8,30.17,West,272,1.0,5.0,79,0.00,,---,0.00,VWS V14.01,2013-01-20 10:19:00,
2013-01-20 04:20:00,38.7,32.8,30.17,West,272,1.0,5.0,79,0.00,,---,0.00,VWS V14.01,2013-01-20 10:20:00,
2013-01-20 04:21:00,38.7,32.8,30.17,West,272,1.0,5.0,79,0.00,,---,0.00,VWS V14.01,2013-01-20 10:21:00,
2013-01-20 04:22:00,38.8,32.9,30.17,West,275,1.0,5.0,79,0.00,,---,0.00,VWS V14.01,2013-01-20 10:22:00,
2013-01-20 04:24:00,38.9,33.0,30.17,West,279,4.0,5.0,79,0.00,,---,0.00,VWS V14.01,2013-01-20 10:24:00,
2013-01-20 04:26:00,39.1,32.8,30.17,WNW,299,1.0,5.0,78,0.00,,---,0.00,VWS V14.01,2013-01-20 10:26:00,
2013-01-20 04:27:00,38.9,32.3,30.17,WNW,299,2.0,5.0,77,0.00,,---,0.00,VWS V14.01,2013-01-20 10:27:00,
2013-01-20 04:29:00,38.9,32.6,30.18,WNW,299,0.0,2.0,78,0.00,,---,0.00,VWS V14.01,2013-01-20 10:29:00,
2013-01-20 04:30:00,38.9,32.3,30.17,WNW,299,2.0,5.0,77,0.00,,---,0.00,VWS V14.01,2013-01-20 10:30:00,
2013-01-20 04:31:00,39.2,32.6,30.18,WNW,299,0.0,2.0,77,0.00,,---,0.00,VWS V14.01,2013-01-20 10:31:00,
2013-01-20 04:33:00,39.3,32.7,30.18,WNW,299,0.0,2.0,77,0.00,,---,0.00,VWS V14.01,2013-01-20 10:33:00,
2013-01-20 04:34:00,39.3,32.7,30.18,WNW,299,0.0,2.0,77,0.00,,---,0.00,VWS V14.01,2013-01-20 10:34:00,
2013-01-20 04:36:00,39.2,32.6,30.18,WNW,299,0.0,2.0,77,0.00,,---,0.00,VWS V14.01,2013-01-20 10:36:00,
2013-01-20 04:38:00,39.1,32.2,30.18,WNW,299,0.0,3.0,76,0.00,,---,0.00,VWS V14.01,2013-01-20 10:38:00,
2013-01-20 04:39:00,38.9,32.0,30.18,WNW,299,1.0,3.0,76,0.00,,---,0.00,VWS V14.01,2013-01-20 10:39:00,
2013-01-20 04:41:00,39.1,32.5,30.18,WNW,299,0.0,3.0,77,0.00,,---,0.00,VWS V14.01,2013-01-20 10:41:00,
2013-01-20 04:42:00,39.1,32.5,30.18,WNW,299,0.0,3.0,77,0.00,,---,0.00,VWS V14.01,2013-01-20 10:42:00,
2013-01-20 04:43:00,39.3,32.7,30.18,WNW,299,0.0,3.0,77,0.00,,---,0.00,VWS V14.01,2013-01-20 10:43:00,
2013-01-20 04:44:00,39.4,32.5,30.18,WNW,299,0.0,3.0,76,0.00,,---,0.00,VWS V14.01,2013-01-20 10:44:00,
2013-01-20 04:46:00,39.4,32.5,30.18,WNW,299,2.0,3.0,76,0.00,,---,0.00,VWS V14.01,2013-01-20 10:46:00,
2013-01-20 04:47:00,39.5,32.6,30.18,WNW,299,2.0,3.0,76,0.00,,---,0.00,VWS V14.01,2013-01-20 10:47:00,
2013-01-20 04:48:00,39.5,32.6,30.18,WNW,299,2.0,3.0,76,0.00,,---,0.00,VWS V14.01,2013-01-20 10:48:00,
2013-01-20 04:49:00,39.3,32.0,30.18,WNW,299,2.0,3.0,75,0.00,,---,0.00,VWS V14.01,2013-01-20 10:49:00,
2013-01-20 04:51:00,39.1,31.9,30.18,WNW,299,2.0,3.0,75,0.00,,---,0.00,VWS V14.01,2013-01-20 10:51:00,
2013-01-20 04:52:00,38.9,31.7,30.19,WNW,299,1.0,3.0,75,0.00,,---,0.00,VWS V14.01,2013-01-20 10:52:00,
2013-01-20 04:53:00,38.4,31.5,30.18,West,272,2.0,4.0,76,0.00,,---,0.00,VWS V14.01,2013-01-20 10:53:00,
2013-01-20 04:54:00,38.4,31.8,30.18,West,272,1.0,4.0,77,0.00,,---,0.00,VWS V14.01,2013-01-20 10:54:00,
2013-01-20 04:56:00,38.6,32.0,30.19,West,272,0.0,4.0,77,0.00,,---,0.00,VWS V14.01,2013-01-20 10:56:00,
2013-01-20 04:57:00,38.5,31.9,30.19,West,272,2.0,4.0,77,0.00,,---,0.00,VWS V14.01,2013-01-20 10:57:00,
2013-01-20 04:58:00,38.4,31.8,30.19,WNW,288,2.0,2.0,77,0.00,,---,0.00,VWS V14.01,2013-01-20 10:58:00,
2013-01-20 04:59:00,38.4,31.8,30.19,WNW,289,0.0,2.0,77,0.00,,---,0.00,VWS V14.01,2013-01-20 10:59:00,
2013-01-20 05:00:00,38.5,31.9,30.19,West,272,2.0,4.0,77,0.00,,---,0.00,VWS V14.01,2013-01-20 11:00:00,
2013-01-20 05:02:00,38.2,31.6,30.19,WNW,289,0.0,2.0,77,0.00,,---,0.00,VWS V14.01,2013-01-20 11:02:00,
2013-01-20 05:03:00,38.2,32.0,30.19,WNW,289,2.0,2.0,78,0.00,,---,0.00,VWS V14.01,2013-01-20 11:03:00,
2013-01-20 05:04:00,38.4,32.2,30.18,WNW,289,1.0,2.0,78,0.00,,---,0.00,VWS V14.01,2013-01-20 11:04:00,
2013-01-20 05:07:00,38.7,32.1,30.19,WNW,289,2.0,3.0,77,0.00,,---,0.00,VWS V14.01,2013-01-20 11:07:00,
2013-01-20 05:08:00,38.7,32.1,30.19,WNW,289,1.0,3.0,77,0.00,,---,0.00,VWS V14.01,2013-01-20 11:08:00,
2013-01-20 05:09:00,38.6,32.0,30.19,WNW,289,2.0,3.0,77,0.00,,---,0.00,VWS V14.01,2013-01-20 11:09:00,
2013-01-20 05:12:00,38.4,31.8,30.19,WNW,289,3.0,3.0,77,0.00,,---,0.00,VWS V14.01,2013-01-20 11:12:00,
2013-01-20 05:13:00,38.4,32.2,30.19,WNW,289,2.0,4.0,78,0.00,,---,0.00,VWS V14.01,2013-01-20 11:13:00,
2013-01-20 05:14:00,38.6,32.3,30.19,WNW,289,3.0,4.0,78,0.00,,---,0.00,VWS V14.01,2013-01-20 11:14:00,
2013-01-20 05:17:00,39.1,32.2,30.19,WNW,289,3.0,4.0,76,0.00,,---,0.00,VWS V14.01,2013-01-20 11:17:00,
2013-01-20 05:18:00,39.2,32.3,30.19,WNW,289,3.0,4.0,76,0.00,,---,0.00,VWS V14.01,2013-01-20 11:18:00,
2013-01-20 05:19:00,39.3,32.4,30.19,WNW,289,3.0,4.0,76,0.00,,---,0.00,VWS V14.01,2013-01-20 11:19:00,
2013-01-20 05:20:00,39.4,32.5,30.19,WNW,299,2.0,5.0,76,0.00,,---,0.00,VWS V14.01,2013-01-20 11:20:00,
2013-01-20 05:23:00,39.6,32.3,30.19,WNW,303,2.0,5.0,75,0.00,,---,0.00,VWS V14.01,2013-01-20 11:23:00,
2013-01-20 05:24:00,39.7,32.4,30.19,WNW,303,3.0,5.0,75,0.00,,---,0.00,VWS V14.01,2013-01-20 11:24:00,
2013-01-20 05:25:00,39.8,32.5,30.19,WNW,287,3.0,5.0,75,0.00,,---,0.00,VWS V14.01,2013-01-20 11:25:00,
2013-01-20 05:28:00,39.6,31.7,30.20,WNW,296,1.0,2.0,73,0.00,,---,0.00,VWS V14.01,2013-01-20 11:28:00,
2013-01-20 05:29:00,39.1,31.2,30.20,WNW,288,2.0,3.0,73,0.00,,---,0.00,VWS V14.01,2013-01-20 11:29:00,
2013-01-20 05:30:00,38.8,31.2,30.20,WNW,288,2.0,3.0,74,0.00,,---,0.00,VWS V14.01,2013-01-20 11:30:00,
2013-01-20 05:33:00,37.8,30.9,30.20,WNW,288,2.0,3.0,76,0.00,,---,0.00,VWS V14.01,2013-01-20 11:33:00,
2013-01-20 05:34:00,37.4,30.5,30.20,WNW,299,4.0,4.0,76,0.00,,---,0.00,VWS V14.01,2013-01-20 11:34:00,
2013-01-20 05:35:00,37.4,30.5,30.20,WNW,299,1.0,4.0,76,0.00,,---,0.00,VWS V14.01,2013-01-20 11:35:00,
2013-01-20 05:38:00,37.3,31.1,30.20,WNW,295,7.0,7.0,78,0.00,,---,0.00,VWS V14.01,2013-01-20 11:38:00,
2013-01-20 05:39:00,37.4,31.2,30.20,NW,308,7.0,9.0,78,0.00,,---,0.00,VWS V14.01,2013-01-20 11:39:00,
2013-01-20 05:40:00,37.6,31.1,30.20,NW,306,3.0,9.0,77,0.00,,---,0.00,VWS V14.01,2013-01-20 11:40:00,
2013-01-20 05:44:00,38.6,31.4,30.20,West,274,3.0,9.0,75,0.00,,---,0.00,VWS V14.01,2013-01-20 11:44:00,
2013-01-20 05:45:00,38.9,31.7,30.20,WNW,285,4.0,9.0,75,0.00,,---,0.00,VWS V14.01,2013-01-20 11:45:00,
2013-01-20 05:49:00,39.5,31.6,30.21,NW,306,2.0,9.0,73,0.00,,---,0.00,VWS V14.01,2013-01-20 11:49:00,
2013-01-20 05:50:00,39.5,31.2,30.20,West,276,3.0,9.0,72,0.00,,---,0.00,VWS V14.01,2013-01-20 11:50:00,
2013-01-20 05:54:00,39.5,31.2,30.21,NW,309,3.0,9.0,72,0.00,,---,0.00,VWS V14.01,2013-01-20 11:54:00,
2013-01-20 05:55:00,39.5,31.2,30.20,NW,308,2.0,9.0,72,0.00,,---,0.00,VWS V14.01,2013-01-20 11:55:00,
2013-01-20 05:59:00,39.7,31.1,30.21,WNW,301,2.0,3.0,71,0.00,,---,0.00,VWS V14.01,2013-01-20 11:59:00,
2013-01-20 06:00:00,39.7,31.1,30.21,WNW,301,2.0,3.0,71,0.00,,---,0.00,VWS V14.01,2013-01-20 12:00:00,
2013-01-20 06:01:00,39.8,31.2,30.21,WNW,301,2.0,3.0,71,0.00,,---,0.00,VWS V14.01,2013-01-20 12:01:00,
2013-01-20 06:04:00,39.9,30.9,30.21,WNW,301,2.0,3.0,70,0.00,,---,0.00,VWS V14.01,2013-01-20 12:04:00,
2013-01-20 06:05:00,40.0,30.7,30.21,WNW,301,1.0,3.0,69,0.00,,---,0.00,VWS V14.01,2013-01-20 12:05:00,
2013-01-20 06:06:00,40.0,30.7,30.21,WNW,301,1.0,3.0,69,0.00,,---,0.00,VWS V14.01,2013-01-20 12:06:00,
2013-01-20 06:09:00,40.0,30.7,30.21,WNW,301,1.0,3.0,69,0.00,,---,0.00,VWS V14.01,2013-01-20 12:09:00,
2013-01-20 06:10:00,40.0,30.7,30.21,WNW,301,1.0,3.0,69,0.00,,---,0.00,VWS V14.01,2013-01-20 12:10:00,
2013-01-20 06:11:00,40.0,30.3,30.21,WNW,301,2.0,3.0,68,0.00,,---,0.00,VWS V14.01,2013-01-20 12:11:00,
2013-01-20 06:14:00,40.2,30.1,30.21,WNW,301,2.0,3.0,67,0.00,,---,0.00,VWS V14.01,2013-01-20 12:14:00,
2013-01-20 06:15:00,40.2,30.1,30.21,WNW,301,2.0,3.0,67,0.00,,---,0.00,VWS V14.01,2013-01-20 12:15:00,
2013-01-20 06:16:00,40.2,30.1,30.21,WNW,301,1.0,3.0,67,0.00,,---,0.00,VWS V14.01,2013-01-20 12:16:00,
2013-01-20 06:19:00,38.8,29.9,30.22,NE,54,5.0,6.0,70,0.00,,---,0.00,VWS V14.01,2013-01-20 12:19:00,
2013-01-20 06:20:00,38.4,29.5,30.22,NE,54,5.0,6.0,70,0.00,,---,0.00,VWS V14.01,2013-01-20 12:20:00,
2013-01-20 06:21:00,37.1,28.9,30.22,NE,54,1.0,6.0,72,0.00,,---,0.00,VWS V14.01,2013-01-20 12:21:00,
2013-01-20 06:24:00,34.2,28.1,30.22,NE,54,0.0,6.0,78,0.00,,---,0.00,VWS V14.01,2013-01-20 12:24:00,
2013-01-20 06:25:00,34.1,28.6,30.22,NE,54,2.0,6.0,80,0.00,,---,0.00,VWS V14.01,2013-01-20 12:25:00,
2013-01-20 06:26:00,34.1,29.2,30.21,NE,54,1.0,6.0,82,0.00,,---,0.00,VWS V14.01,2013-01-20 12:26:00,
2013-01-20 06:29:00,34.7,29.8,30.22,NE,54,0.0,0.0,82,0.00,,---,0.00,VWS V14.01,2013-01-20 12:29:00,
2013-01-20 06:30:00,34.4,29.2,30.22,NE,54,0.0,0.0,81,0.00,,---,0.00,VWS V14.01,2013-01-20 12:30:00,
2013-01-20 06:31:00,33.8,28.3,30.22,NE,54,0.0,0.0,80,0.00,,---,0.00,VWS V14.01,2013-01-20 12:31:00,
2013-01-20 06:32:00,33.7,28.2,30.22,NE,54,0.0,0.0,80,0.00,,---,0.00,VWS V14.01,2013-01-20 12:32:00,
2013-01-20 06:35:00,33.4,29.1,30.22,NNE,20,1.0,5.0,84,0.00,,---,0.00,VWS V14.01,2013-01-20 12:35:00,
2013-01-20 06:36:00,34.2,29.9,30.22,North,10,2.0,5.0,84,0.00,,---,0.00,VWS V14.01,2013-01-20 12:36:00,
2013-01-20 06:37:00,34.3,30.0,30.22,NW,325,3.0,5.0,84,0.00,,---,0.00,VWS V14.01,2013-01-20 12:37:00,
2013-01-20 06:40:00,35.4,30.5,30.22,NNW,339,2.0,5.0,82,0.00,,---,0.00,VWS V14.01,2013-01-20 12:40:00,
2013-01-20 06:42:00,35.5,30.3,30.22,NNW,339,2.0,5.0,81,0.00,,---,0.00,VWS V14.01,2013-01-20 12:42:00,
2013-01-20 06:45:00,36.0,30.4,30.23,NNW,339,2.0,5.0,80,0.00,,---,0.00,VWS V14.01,2013-01-20 12:45:00,
2013-01-20 06:47:00,35.8,29.9,30.23,NNW,339,0.0,5.0,79,0.00,,---,0.00,VWS V14.01,2013-01-20 12:47:00,
2013-01-20 06:50:00,35.6,30.0,30.23,NNW,339,0.0,5.0,80,0.00,,---,0.00,VWS V14.01,2013-01-20 12:50:00,
2013-01-20 06:52:00,35.3,29.8,30.23,NNW,339,0.0,5.0,80,0.00,,---,0.00,VWS V14.01,2013-01-20 12:52:00,
2013-01-20 06:55:00,35.4,29.9,30.24,NNW,339,2.0,5.0,80,0.00,,---,0.00,VWS V14.01,2013-01-20 12:55:00,
2013-01-20 06:57:00,35.6,29.7,30.24,WNW,297,4.0,6.0,79,0.00,,---,0.00,VWS V14.01,2013-01-20 12:57:00,
2013-01-20 06:58:00,35.6,29.7,30.24,WNW,291,3.0,6.0,79,0.00,,---,0.00,VWS V14.01,2013-01-20 12:58:00,
2013-01-20 07:00:00,35.7,29.2,30.24,NW,306,2.0,6.0,77,0.00,,---,0.00,VWS V14.01,2013-01-20 13:00:00,
2013-01-20 07:01:00,35.8,29.3,30.24,NW,305,2.0,6.0,77,0.00,,---,0.00,VWS V14.01,2013-01-20 13:01:00,
2013-01-20 07:02:00,36.0,29.5,30.24,WNW,299,3.0,6.0,77,0.00,,---,0.00,VWS V14.01,2013-01-20 13:02:00,
2013-01-20 07:03:00,36.0,29.5,30.24,NW,325,3.0,6.0,77,0.00,,---,0.00,VWS V14.01,2013-01-20 13:03:00,
2013-01-20 07:05:00,36.4,29.6,30.24,WNW,289,3.0,6.0,76,0.00,,---,0.00,VWS V14.01,2013-01-20 13:05:00,
2013-01-20 07:06:00,36.5,29.7,30.24,WNW,295,3.0,6.0,76,0.00,,---,0.00,VWS V14.01,2013-01-20 13:06:00,
2013-01-20 07:08:00,36.7,29.5,30.24,WNW,288,4.0,6.0,75,0.00,,---,0.00,VWS V14.01,2013-01-20 13:08:00,
2013-01-20 07:11:00,36.8,29.3,30.24,NW,314,1.0,6.0,74,0.00,,---,0.00,VWS V14.01,2013-01-20 13:11:00,
2013-01-20 07:12:00,36.8,29.3,30.24,NW,314,1.0,6.0,74,0.00,,---,0.00,VWS V14.01,2013-01-20 13:12:00,
2013-01-20 07:13:00,36.8,29.3,30.24,NW,314,2.0,6.0,74,0.00,,---,0.00,VWS V14.01,2013-01-20 13:13:00,
2013-01-20 07:16:00,36.6,28.8,30.24,WNW,303,4.0,6.0,73,0.00,,---,0.00,VWS V14.01,2013-01-20 13:16:00,
2013-01-20 07:17:00,36.6,28.8,30.24,NW,312,3.0,6.0,73,0.00,,---,0.00,VWS V14.01,2013-01-20 13:17:00,
2013-01-20 07:18:00,36.5,28.7,30.24,NW,312,3.0,6.0,73,0.00,,---,0.00,VWS V14.01,2013-01-20 13:18:00,
2013-01-20 07:21:00,36.4,28.6,30.24,NNW,335,4.0,6.0,73,0.00,,---,0.00,VWS V14.01,2013-01-20 13:21:00,
2013-01-20 07:22:00,36.4,28.6,30.24,NW,325,3.0,6.0,73,0.00,,---,0.00,VWS V14.01,2013-01-20 13:22:00,
2013-01-20 07:24:00,36.2,28.4,30.24,NW,325,5.0,6.0,73,0.00,,---,0.00,VWS V14.01,2013-01-20 13:24:00,
2013-01-20 07:26:00,36.3,28.5,30.24,WNW,299,4.0,6.0,73,0.00,,---,0.00,VWS V14.01,2013-01-20 13:26:00,
2013-01-20 07:27:00,36.3,28.1,30.24,West,274,3.0,6.0,72,0.00,,---,0.00,VWS V14.01,2013-01-20 13:27:00,
2013-01-20 07:29:00,36.3,28.1,30.24,WNW,295,4.0,5.0,72,0.00,,---,0.00,VWS V14.01,2013-01-20 13:29:00,
2013-01-20 07:30:00,36.3,28.1,30.24,WNW,292,3.0,5.0,72,0.00,,---,0.00,VWS V14.01,2013-01-20 13:30:00,
2013-01-20 07:32:00,36.6,28.1,30.24,NNW,343,1.0,5.0,71,0.00,,---,0.00,VWS V14.01,2013-01-20 13:32:00,
2013-01-20 07:34:00,36.7,27.9,30.24,NW,312,2.0,5.0,70,0.00,,---,0.00,VWS V14.01,2013-01-20 13:34:00,
2013-01-20 07:36:00,36.9,27.7,30.24,NW,316,4.0,7.0,69,0.00,,---,0.00,VWS V14.01,2013-01-20 13:36:00,
2013-01-20 07:37:00,37.1,27.5,30.24,WNW,298,3.0,7.0,68,0.00,,---,0.00,VWS V14.01,2013-01-20 13:37:00,
2013-01-20 07:38:00,37.0,27.4,30.24,NW,325,3.0,7.0,68,0.00,,---,0.00,VWS V14.01,2013-01-20 13:38:00,
2013-01-20 07:39:00,37.1,27.5,30.24,WNW,299,4.0,7.0,68,0.00,,---,0.00,VWS V14.01,2013-01-20 13:39:00,
2013-01-20 07:42:00,37.5,27.2,30.25,NW,325,3.0,7.0,66,0.00,,---,0.00,VWS V14.01,2013-01-20 13:42:00,
2013-01-20 07:43:00,37.5,27.2,30.25,NW,314,3.0,7.0,66,0.00,,---,0.00,VWS V14.01,2013-01-20 13:43:00,
2013-01-20 07:44:00,37.5,27.2,30.25,NW,314,1.0,7.0,66,0.00,,---,0.00,VWS V14.01,2013-01-20 13:44:00,
2013-01-20 07:47:00,37.3,27.4,30.25,NW,308,6.0,7.0,67,0.00,,---,0.00,VWS V14.01,2013-01-20 13:47:00,
2013-01-20 07:48:00,37.3,27.0,30.25,WNW,296,8.0,9.0,66,0.00,,---,0.00,VWS V14.01,2013-01-20 13:48:00,
2013-01-20 07:50:00,37.5,26.8,30.25,NW,325,3.0,9.0,65,0.00,,---,0.00,VWS V14.01,2013-01-20 13:50:00,
2013-01-20 07:52:00,37.6,26.9,30.25,NW,316,6.0,9.0,65,0.00,,---,0.00,VWS V14.01,2013-01-20 13:52:00,
2013-01-20 07:53:00,37.6,26.9,30.25,NNW,330,6.0,9.0,65,0.00,,---,0.00,VWS V14.01,2013-01-20 13:53:00,
2013-01-20 07:55:00,37.6,26.9,30.25,NW,315,4.0,9.0,65,0.00,,---,0.00,VWS V14.01,2013-01-20 13:55:00,
2013-01-20 07:57:00,37.6,26.9,30.25,WNW,293,5.0,9.0,65,0.00,,---,0.00,VWS V14.01,2013-01-20 13:57:00,
2013-01-20 07:58:00,37.7,26.6,30.25,NW,325,6.0,8.0,64,0.00,,---,0.00,VWS V14.01,2013-01-20 13:58:00,
2013-01-20 08:00:00,37.9,26.8,30.25,NNW,347,6.0,8.0,64,0.00,,---,0.00,VWS V14.01,2013-01-20 14:00:00,
2013-01-20 08:02:00,37.9,26.5,30.26,NW,312,5.0,9.0,63,0.00,,---,0.00,VWS V14.01,2013-01-20 14:02:00,
2013-01-20 08:03:00,38.0,26.1,30.26,NW,318,4.0,9.0,62,0.00,,---,0.00,VWS V14.01,2013-01-20 14:03:00,
2013-01-20 08:05:00,38.0,26.5,30.26,NW,320,6.0,9.0,63,0.00,,---,0.00,VWS V14.01,2013-01-20 14:05:00,
2013-01-20 08:07:00,38.0,26.5,30.26,NW,316,5.0,9.0,63,0.00,,---,0.00,VWS V14.01,2013-01-20 14:07:00,
2013-01-20 08:08:00,38.0,26.5,30.26,NW,325,4.0,9.0,63,0.00,,---,0.00,VWS V14.01,2013-01-20 14:08:00,
2013-01-20 08:09:00,38.0,26.9,30.26,NW,307,4.0,9.0,64,0.00,,---,0.00,VWS V14.01,2013-01-20 14:09:00,
2013-01-20 08:11:00,38.0,26.5,30.26,WNW,300,7.0,10.0,63,0.00,,---,0.00,VWS V14.01,2013-01-20 14:11:00,
2013-01-20 08:12:00,38.1,26.6,30.26,NW,310,5.0,10.0,63,0.00,,---,0.00,VWS V14.01,2013-01-20 14:12:00,
2013-01-20 08:14:00,38.2,27.1,30.26,NW,316,6.0,10.0,64,0.00,,---,0.00,VWS V14.01,2013-01-20 14:14:00,
2013-01-20 08:16:00,38.3,26.4,30.26,NW,321,4.0,10.0,62,0.00,,---,0.00,VWS V14.01,2013-01-20 14:16:00,
2013-01-20 08:17:00,38.3,26.8,30.26,NW,314,3.0,10.0,63,0.00,,---,0.00,VWS V14.01,2013-01-20 14:17:00,
2013-01-20 08:19:00,38.4,26.9,30.27,NW,318,6.0,10.0,63,0.00,,---,0.00,VWS V14.01,2013-01-20 14:19:00,
2013-01-20 08:21:00,38.4,26.9,30.27,NW,325,4.0,10.0,63,0.00,,---,0.00,VWS V14.01,2013-01-20 14:21:00,
2013-01-20 08:23:00,38.4,27.3,30.26,NNW,330,5.0,10.0,64,0.00,,---,0.00,VWS V14.01,2013-01-20 14:23:00,
2013-01-20 08:24:00,38.4,27.3,30.26,NNW,341,3.0,10.0,64,0.00,,---,0.00,VWS V14.01,2013-01-20 14:24:00,
2013-01-20 08:26:00,38.4,27.3,30.26,NNW,335,8.0,10.0,64,0.00,,---,0.00,VWS V14.01,2013-01-20 14:26:00,
2013-01-20 08:28:00,38.4,26.9,30.26,WNW,289,6.0,10.0,63,0.00,,---,0.00,VWS V14.01,2013-01-20 14:28:00,
2013-01-20 08:29:00,38.3,27.6,30.27,NW,309,5.0,8.0,65,0.00,,---,0.00,VWS V14.01,2013-01-20 14:29:00,
2013-01-20 08:30:00,38.4,26.9,30.26,WNW,289,6.0,10.0,63,0.00,,---,0.00,VWS V14.01,2013-01-20 14:30:00,
2013-01-20 08:31:00,38.3,27.2,30.26,NW,315,6.0,11.0,64,0.00,,---,0.00,VWS V14.01,2013-01-20 14:31:00,
2013-01-20 08:33:00,38.3,26.8,30.26,NNW,335,6.0,11.0,63,0.00,,---,0.00,VWS V14.01,2013-01-20 14:33:00,
2013-01-20 08:34:00,38.3,26.8,30.26,NW,325,6.0,12.0,63,0.00,,---,0.00,VWS V14.01,2013-01-20 14:34:00,
2013-01-20 08:37:00,38.3,27.2,30.26,North,349,5.0,12.0,64,0.00,,---,0.00,VWS V14.01,2013-01-20 14:37:00,
2013-01-20 08:38:00,38.3,27.2,30.26,NNW,348,5.0,12.0,64,0.00,,---,0.00,VWS V14.01,2013-01-20 14:38:00,
2013-01-20 08:39:00,38.4,27.7,30.26,NNW,330,10.0,14.0,65,0.00,,---,0.00,VWS V14.01,2013-01-20 14:39:00,
2013-01-20 08:42:00,38.2,27.5,30.26,North,11,9.0,14.0,65,0.00,,---,0.00,VWS V14.01,2013-01-20 14:42:00,
2013-01-20 08:43:00,38.1,27.4,30.26,North,354,10.0,14.0,65,0.00,,---,0.00,VWS V14.01,2013-01-20 14:43:00,
2013-01-20 08:44:00,37.9,27.2,30.26,NNW,347,11.0,14.0,65,0.00,,---,0.00,VWS V14.01,2013-01-20 14:44:00,
2013-01-20 08:45:00,37.9,27.2,30.26,WNW,299,11.0,14.0,65,0.00,,---,0.00,VWS V14.01,2013-01-20 14:45:00,
2013-01-20 08:47:00,37.7,27.4,30.27,NW,321,12.0,14.0,66,0.00,,---,0.00,VWS V14.01,2013-01-20 14:47:00,
2013-01-20 08:48:00,37.7,27.4,30.27,NNW,335,6.0,14.0,66,0.00,,---,0.00,VWS V14.01,2013-01-20 14:48:00,
2013-01-20 08:50:00,37.6,27.6,30.27,North,359,10.0,14.0,67,0.00,,---,0.00,VWS V14.01,2013-01-20 14:50:00,
2013-01-20 08:52:00,37.6,27.6,30.27,North,358,7.0,14.0,67,0.00,,---,0.00,VWS V14.01,2013-01-20 14:52:00,
2013-01-20 08:53:00,37.5,27.5,30.27,NNW,335,10.0,14.0,67,0.00,,---,0.00,VWS V14.01,2013-01-20 14:53:00,
2013-01-20 08:55:00,37.5,27.5,30.27,NNW,335,10.0,15.0,67,0.00,,---,0.00,VWS V14.01,2013-01-20 14:55:00,
2013-01-20 08:57:00,37.5,27.5,30.27,North,2,5.0,15.0,67,0.00,,---,0.00,VWS V14.01,2013-01-20 14:57:00,
2013-01-20 08:58:00,37.5,27.9,30.27,North,4,10.0,13.0,68,0.00,,---,0.00,VWS V14.01,2013-01-20 14:58:00,
2013-01-20 09:00:00,37.5,27.9,30.27,NNW,341,5.0,13.0,68,0.00,,---,0.00,VWS V14.01,2013-01-20 15:00:00,
2013-01-20 09:01:00,37.5,27.9,30.27,NNW,335,12.0,13.0,68,0.00,,---,0.00,VWS V14.01,2013-01-20 15:01:00,
2013-01-20 09:03:00,37.5,27.9,30.27,NNW,341,8.0,13.0,68,0.00,,---,0.00,VWS V14.01,2013-01-20 15:03:00,
2013-01-20 09:05:00,37.6,28.4,30.27,NNW,330,7.0,13.0,69,0.00,,---,0.00,VWS V14.01,2013-01-20 15:05:00,
2013-01-20 09:06:00,37.6,28.4,30.27,NNW,347,7.0,13.0,69,0.00,,---,0.00,VWS V14.01,2013-01-20 15:06:00,
2013-01-20 09:08:00,37.5,28.3,30.27,NW,325,9.0,13.0,69,0.00,,---,0.00,VWS V14.01,2013-01-20 15:08:00,
2013-01-20 09:09:00,37.5,28.3,30.27,NNW,335,12.0,15.0,69,0.00,,---,0.00,VWS V14.01,2013-01-20 15:09:00,
2013-01-20 09:10:00,37.5,28.6,30.27,North,10,10.0,15.0,70,0.00,,---,0.00,VWS V14.01,2013-01-20 15:10:00,
2013-01-20 09:11:00,37.4,28.9,30.28,North,353,7.0,15.0,71,0.00,,---,0.00,VWS V14.01,2013-01-20 15:11:00,
2013-01-20 09:13:00,37.3,28.8,30.28,NNW,335,6.0,15.0,71,0.00,,---,0.00,VWS V14.01,2013-01-20 15:13:00,
2013-01-20 09:14:00,37.3,29.1,30.28,WNW,293,9.0,15.0,72,0.00,,---,0.00,VWS V14.01,2013-01-20 15:14:00,
2013-01-20 09:15:00,37.1,28.9,30.28,NNW,330,10.0,15.0,72,0.00,,---,0.00,VWS V14.01,2013-01-20 15:15:00,
2013-01-20 09:16:00,37.0,28.8,30.28,North,350,6.0,15.0,72,0.00,,---,0.00,VWS V14.01,2013-01-20 15:16:00,
2013-01-20 09:18:00,37.0,29.2,30.28,NW,325,10.0,15.0,73,0.00,,---,0.00,VWS V14.01,2013-01-20 15:18:00,
2013-01-20 09:19:00,36.9,28.7,30.28,NW,325,7.0,15.0,72,0.00,,---,0.00,VWS V14.01,2013-01-20 15:19:00,
2013-01-20 09:20:00,36.8,28.6,30.28,NW,307,8.0,15.0,72,0.00,,---,0.00,VWS V14.01,2013-01-20 15:20:00,
2013-01-20 09:21:00,36.8,29.0,30.28,NW,319,5.0,15.0,73,0.00,,---,0.00,VWS V14.01,2013-01-20 15:21:00,
2013-01-20 09:23:00,36.9,29.4,30.28,NNW,335,10.0,15.0,74,0.00,,---,0.00,VWS V14.01,2013-01-20 15:23:00,
2013-01-20 09:24:00,37.0,29.2,30.28,NNW,335,7.0,15.0,73,0.00,,---,0.00,VWS V14.01,2013-01-20 15:24:00,
2013-01-20 09:26:00,37.0,29.2,30.28,NW,306,8.0,15.0,73,0.00,,---,0.00,VWS V14.01,2013-01-20 15:26:00,
2013-01-20 09:27:00,37.0,29.2,30.28,NW,325,8.0,15.0,73,0.00,,---,0.00,VWS V14.01,2013-01-20 15:27:00,
2013-01-20 09:28:00,37.2,30.0,30.28,NW,325,8.0,10.0,75,0.00,,---,0.00,VWS V14.01,2013-01-20 15:28:00,
2013-01-20 09:29:00,37.2,29.7,30.28,NW,313,7.0,10.0,74,0.00,,---,0.00,VWS V14.01,2013-01-20 15:29:00,
2013-01-20 09:30:00,37.1,29.6,30.28,NW,305,6.0,15.0,74,0.00,,---,0.00,VWS V14.01,2013-01-20 15:30:00,
2013-01-20 09:32:00,37.1,29.3,30.28,NW,308,5.0,10.0,73,0.00,,---,0.00,VWS V14.01,2013-01-20 15:32:00,
2013-01-20 09:33:00,37.2,29.4,30.28,North,355,7.0,10.0,73,0.00,,---,0.00,VWS V14.01,2013-01-20 15:33:00,
2013-01-20 09:34:00,37.2,29.0,30.28,North,349,8.0,11.0,72,0.00,,---,0.00,VWS V14.01,2013-01-20 15:34:00,
2013-01-20 09:37:00,37.1,28.6,30.28,NW,325,11.0,13.0,71,0.00,,---,0.00,VWS V14.01,2013-01-20 15:37:00,
2013-01-20 09:38:00,37.0,28.1,30.28,NNW,335,7.0,13.0,70,0.00,,---,0.00,VWS V14.01,2013-01-20 15:38:00,
2013-01-20 09:39:00,37.1,28.6,30.28,NNW,339,5.0,13.0,71,0.00,,---,0.00,VWS V14.01,2013-01-20 15:39:00,
2013-01-20 09:42:00,37.2,28.3,30.28,NNW,330,10.0,13.0,70,0.00,,---,0.00,VWS V14.01,2013-01-20 15:42:00,
2013-01-20 09:43:00,37.0,28.1,30.28,North,353,11.0,13.0,70,0.00,,---,0.00,VWS V14.01,2013-01-20 15:43:00,
2013-01-20 09:44:00,37.0,28.1,30.28,North,356,9.0,15.0,70,0.00,,---,0.00,VWS V14.01,2013-01-20 15:44:00,
2013-01-20 09:47:00,36.9,27.7,30.28,NNW,343,9.0,15.0,69,0.00,,---,0.00,VWS V14.01,2013-01-20 15:47:00,
2013-01-20 09:48:00,36.8,27.6,30.28,NW,325,10.0,15.0,69,0.00,,---,0.00,VWS V14.01,2013-01-20 15:48:00,
2013-01-20 09:50:00,36.8,27.2,30.28,WNW,303,9.0,15.0,68,0.00,,---,0.00,VWS V14.01,2013-01-20 15:50:00,
2013-01-20 09:53:00,36.8,27.2,30.28,NNW,345,6.0,15.0,68,0.00,,---,0.00,VWS V14.01,2013-01-20 15:53:00,
2013-01-20 09:55:00,36.9,26.6,30.28,North,349,5.0,15.0,66,0.00,,---,0.00,VWS V14.01,2013-01-20 15:55:00,
2013-01-20 09:58:00,36.8,26.1,30.28,NNW,343,9.0,9.0,65,0.00,,---,0.00,VWS V14.01,2013-01-20 15:58:00,
2013-01-20 10:00:00,36.8,26.1,30.28,NW,325,5.0,9.0,65,0.00,,---,0.00,VWS V14.01,2013-01-20 16:00:00,
2013-01-20 10:03:00,36.8,25.4,30.28,NW,325,4.0,12.0,63,0.00,,---,0.00,VWS V14.01,2013-01-20 16:03:00,
2013-01-20 10:04:00,36.8,25.4,30.28,North,360,9.0,12.0,63,0.00,,---,0.00,VWS V14.01,2013-01-20 16:04:00,
2013-01-20 10:05:00,36.7,24.9,30.28,NNE,26,9.0,12.0,62,0.00,,---,0.00,VWS V14.01,2013-01-20 16:05:00,
2013-01-20 10:08:00,36.8,25.4,30.28,North,350,3.0,12.0,63,0.00,,---,0.00,VWS V14.01,2013-01-20 16:08:00,
2013-01-20 10:09:00,37.0,25.6,30.28,North,355,6.0,12.0,63,0.00,,---,0.00,VWS V14.01,2013-01-20 16:09:00,
2013-01-20 10:10:00,37.1,24.9,30.28,North,5,6.0,12.0,61,0.00,,---,0.00,VWS V14.01,2013-01-20 16:10:00,
2013-01-20 10:13:00,37.2,24.6,30.29,NNW,335,2.0,12.0,60,0.00,,---,0.00,VWS V14.01,2013-01-20 16:13:00,
2013-01-20 10:14:00,37.2,24.6,30.29,NNW,330,4.0,12.0,60,0.00,,---,0.00,VWS V14.01,2013-01-20 16:14:00,
2013-01-20 10:15:00,37.1,24.1,30.29,North,353,7.0,12.0,59,0.00,,---,0.00,VWS V14.01,2013-01-20 16:15:00,
2013-01-20 10:18:00,37.3,23.9,30.28,North,360,7.0,12.0,58,0.00,,---,0.00,VWS V14.01,2013-01-20 16:18:00,
2013-01-20 10:19:00,37.3,23.9,30.28,North,356,7.0,12.0,58,0.00,,---,0.00,VWS V14.01,2013-01-20 16:19:00,
2013-01-20 10:21:00,38.0,25.8,30.28,NNW,335,4.0,12.0,61,0.00,,---,0.00,VWS V14.01,2013-01-20 16:21:00,
2013-01-20 10:24:00,37.8,24.0,30.28,North,358,9.0,13.0,57,0.00,,---,0.00,VWS V14.01,2013-01-20 16:24:00,
2013-01-20 10:26:00,37.7,23.9,30.28,NW,317,6.0,13.0,57,0.00,,---,0.00,VWS V14.01,2013-01-20 16:26:00,
2013-01-20 10:29:00,37.8,24.0,30.28,NNW,344,9.0,11.0,57,0.00,,---,0.00,VWS V14.01,2013-01-20 16:29:00,
2013-01-20 10:30:00,37.7,23.4,30.28,NW,325,10.0,13.0,56,0.00,,---,0.00,VWS V14.01,2013-01-20 16:30:00,
2013-01-20 10:31:00,37.9,23.2,30.28,NNW,335,6.0,12.0,55,0.00,,---,0.00,VWS V14.01,2013-01-20 16:31:00,
2013-01-20 10:34:00,37.7,22.6,30.28,NW,307,5.0,12.0,54,0.00,,---,0.00,VWS V14.01,2013-01-20 16:34:00,
2013-01-20 10:35:00,37.7,22.6,30.28,NW,325,8.0,12.0,54,0.00,,---,0.00,VWS V14.01,2013-01-20 16:35:00,
2013-01-20 10:36:00,37.6,22.5,30.28,NNW,335,6.0,12.0,54,0.00,,---,0.00,VWS V14.01,2013-01-20 16:36:00,
2013-01-20 10:40:00,37.8,22.7,30.28,NW,325,9.0,12.0,54,0.00,,---,0.00,VWS V14.01,2013-01-20 16:40:00,
2013-01-20 10:41:00,37.7,22.1,30.27,NW,325,4.0,12.0,53,0.00,,---,0.00,VWS V14.01,2013-01-20 16:41:00,
2013-01-20 10:45:00,38.1,23.8,30.27,NNW,335,7.0,12.0,56,0.00,,---,0.00,VWS V14.01,2013-01-20 16:45:00,
2013-01-20 10:46:00,38.2,22.1,30.27,NW,320,10.0,12.0,52,0.00,,---,0.00,VWS V14.01,2013-01-20 16:46:00,
2013-01-20 10:50:00,38.2,22.1,30.27,NW,317,7.0,12.0,52,0.00,,---,0.00,VWS V14.01,2013-01-20 16:50:00,
2013-01-20 10:52:00,38.2,21.7,30.27,NW,325,6.0,12.0,51,0.00,,---,0.00,VWS V14.01,2013-01-20 16:52:00,
2013-01-20 10:55:00,38.0,21.0,30.27,WNW,296,9.0,12.0,50,0.00,,---,0.00,VWS V14.01,2013-01-20 16:55:00,
2013-01-20 10:56:00,38.0,21.0,30.27,NW,325,6.0,12.0,50,0.00,,---,0.00,VWS V14.01,2013-01-20 16:56:00,
2013-01-20 10:57:00,38.2,22.1,30.26,NW,310,9.0,12.0,52,0.00,,---,0.00,VWS V14.01,2013-01-20 16:57:00,
2013-01-20 11:00:00,38.6,20.6,30.26,NW,325,7.0,11.0,48,0.00,,---,0.00,VWS V14.01,2013-01-20 17:00:00,
2013-01-20 11:01:00,38.6,20.6,30.26,NNW,330,7.0,11.0,48,0.00,,---,0.00,VWS V14.01,2013-01-20 17:01:00,
2013-01-20 11:02:00,38.7,21.2,30.26,NW,325,10.0,11.0,49,0.00,,---,0.00,VWS V14.01,2013-01-20 17:02:00,
2013-01-20 11:05:00,38.5,20.0,30.27,NNE,14,5.0,11.0,47,0.00,,---,0.00,VWS V14.01,2013-01-20 17:05:00,
2013-01-20 11:06:00,38.5,20.0,30.27,North,6,4.0,11.0,47,0.00,,---,0.00,VWS V14.01,2013-01-20 17:06:00,
2013-01-20 11:07:00,38.4,19.9,30.27,North,1,6.0,11.0,47,0.00,,---,0.00,VWS V14.01,2013-01-20 17:07:00,
2013-01-20 11:10:00,38.6,19.6,30.27,NW,325,7.0,11.0,46,0.00,,---,0.00,VWS V14.01,2013-01-20 17:10:00,
2013-01-20 11:11:00,38.6,19.6,30.27,NW,316,6.0,11.0,46,0.00,,---,0.00,VWS V14.01,2013-01-20 17:11:00,
2013-01-20 11:12:00,38.7,20.2,30.27,NW,314,8.0,11.0,47,0.00,,---,0.00,VWS V14.01,2013-01-20 17:12:00,
2013-01-20 11:15:00,38.4,18.9,30.26,WNW,288,5.0,11.0,45,0.00,,---,0.00,VWS V14.01,2013-01-20 17:15:00,
2013-01-20 11:16:00,38.3,19.4,30.26,NW,325,6.0,11.0,46,0.00,,---,0.00,VWS V14.01,2013-01-20 17:16:00,
2013-01-20 11:17:00,38.6,20.1,30.26,NNW,341,7.0,11.0,47,0.00,,---,0.00,VWS V14.01,2013-01-20 17:17:00,
2013-01-20 11:20:00,38.9,18.9,30.26,North,6,5.0,11.0,44,0.00,,---,0.00,VWS V14.01,2013-01-20 17:20:00,
2013-01-20 11:21:00,38.9,18.9,30.26,NNW,330,7.0,11.0,44,0.00,,---,0.00,VWS V14.01,2013-01-20 17:21:00,
2013-01-20 11:23:00,38.9,17.2,30.26,NNE,20,3.0,11.0,41,0.00,,---,0.00,VWS V14.01,2013-01-20 17:23:00,
2013-01-20 11:25:00,38.9,18.9,30.26,NNW,335,6.0,11.0,44,0.00,,---,0.00,VWS V14.01,2013-01-20 17:25:00,
2013-01-20 11:26:00,38.9,18.9,30.26,NNW,335,6.0,11.0,44,0.00,,---,0.00,VWS V14.01,2013-01-20 17:26:00,
2013-01-20 11:28:00,39.7,17.4,30.26,NNW,348,6.0,11.0,40,0.00,,---,0.00,VWS V14.01,2013-01-20 17:28:00,
2013-01-20 11:30:00,39.4,14.7,30.25,NNW,335,4.0,11.0,36,0.00,,---,0.00,VWS V14.01,2013-01-20 17:30:00,
2013-01-20 11:31:00,39.3,14.6,30.25,NW,310,5.0,11.0,36,0.00,,---,0.00,VWS V14.01,2013-01-20 17:31:00,
2013-01-20 11:33:00,39.7,16.2,30.25,North,356,6.0,11.0,38,0.00,,---,0.00,VWS V14.01,2013-01-20 17:33:00,
2013-01-20 11:36:00,39.3,14.6,30.25,NW,325,6.0,11.0,36,0.00,,---,0.00,VWS V14.01,2013-01-20 17:36:00,
2013-01-20 11:38:00,39.5,16.6,30.25,NNW,339,7.0,11.0,39,0.00,,---,0.00,VWS V14.01,2013-01-20 17:38:00,
2013-01-20 11:41:00,39.8,16.3,30.25,NNW,345,5.0,11.0,38,0.00,,---,0.00,VWS V14.01,2013-01-20 17:41:00,
2013-01-20 11:44:00,39.9,17.5,30.24,NW,325,4.0,11.0,40,0.00,,---,0.00,VWS V14.01,2013-01-20 17:44:00,
2013-01-20 11:46:00,40.1,15.9,30.24,NW,316,4.0,11.0,37,0.00,,---,0.00,VWS V14.01,2013-01-20 17:46:00,
2013-01-20 11:49:00,40.0,16.5,30.24,NW,325,7.0,11.0,38,0.00,,---,0.00,VWS V14.01,2013-01-20 17:49:00,
2013-01-20 11:51:00,39.6,15.5,30.24,NW,304,8.0,11.0,37,0.00,,---,0.00,VWS V14.01,2013-01-20 17:51:00,
2013-01-20 11:52:00,39.6,17.3,30.24,NW,315,6.0,11.0,40,0.00,,---,0.00,VWS V14.01,2013-01-20 17:52:00,
2013-01-20 11:54:00,39.7,16.8,30.24,North,5,8.0,11.0,39,0.00,,---,0.00,VWS V14.01,2013-01-20 17:54:00,
2013-01-20 11:56:00,39.6,16.1,30.24,NW,314,5.0,11.0,38,0.00,,---,0.00,VWS V14.01,2013-01-20 17:56:00,
2013-01-20 11:57:00,39.6,16.7,30.24,NW,306,3.0,11.0,39,0.00,,---,0.00,VWS V14.01,2013-01-20 17:57:00,
2013-01-20 11:59:00,40.1,17.1,30.24,NW,325,7.0,10.0,39,0.00,,---,0.00,VWS V14.01,2013-01-20 17:59:00,
2013-01-20 12:00:00,39.8,18.0,30.24,WSW,247,5.0,11.0,41,0.00,,---,0.00,VWS V14.01,2013-01-20 18:00:00,
2013-01-20 12:01:00,40.1,17.7,30.24,NW,320,6.0,10.0,40,0.00,,---,0.00,VWS V14.01,2013-01-20 18:01:00,
2013-01-20 12:02:00,40.2,19.0,30.24,NNW,335,4.0,10.0,42,0.00,,---,0.00,VWS V14.01,2013-01-20 18:02:00,
2013-01-20 12:04:00,40.2,17.2,30.24,NNW,345,5.0,10.0,39,0.00,,---,0.00,VWS V14.01,2013-01-20 18:04:00,
2013-01-20 12:06:00,39.7,16.8,30.23,NW,320,5.0,10.0,39,0.00,,---,0.00,VWS V14.01,2013-01-20 18:06:00,
2013-01-20 12:07:00,39.7,17.4,30.23,NW,307,3.0,10.0,40,0.00,,---,0.00,VWS V14.01,2013-01-20 18:07:00,
2013-01-20 12:10:00,39.9,18.1,30.23,NW,325,6.0,11.0,41,0.00,,---,0.00,VWS V14.01,2013-01-20 18:10:00,
2013-01-20 12:11:00,40.2,19.0,30.23,NNW,330,9.0,11.0,42,0.00,,---,0.00,VWS V14.01,2013-01-20 18:11:00,
2013-01-20 12:12:00,40.3,18.5,30.23,NNW,335,5.0,11.0,41,0.00,,---,0.00,VWS V14.01,2013-01-20 18:12:00,
2013-01-20 12:15:00,40.1,18.9,30.23,NW,321,6.0,11.0,42,0.00,,---,0.00,VWS V14.01,2013-01-20 18:15:00,
2013-01-20 12:16:00,40.0,18.8,30.23,NW,316,3.0,11.0,42,0.00,,---,0.00,VWS V14.01,2013-01-20 18:16:00,
2013-01-20 12:17:00,40.0,19.3,30.23,North,357,6.0,11.0,43,0.00,,---,0.00,VWS V14.01,2013-01-20 18:17:00,
2013-01-20 12:20:00,40.1,18.3,30.23,NNE,19,2.0,11.0,41,0.00,,---,0.00,VWS V14.01,2013-01-20 18:20:00,
2013-01-20 12:21:00,40.5,20.9,30.23,North,8,3.0,11.0,45,0.00,,---,0.00,VWS V14.01,2013-01-20 18:21:00,
2013-01-20 12:22:00,40.6,20.9,30.23,NNE,21,5.0,11.0,45,0.00,,---,0.00,VWS V14.01,2013-01-20 18:22:00,
2013-01-20 12:25:00,40.6,18.8,30.22,NW,311,10.0,11.0,41,0.00,,---,0.00,VWS V14.01,2013-01-20 18:25:00,
2013-01-20 12:27:00,40.7,19.4,30.23,NW,325,5.0,11.0,42,0.00,,---,0.00,VWS V14.01,2013-01-20 18:27:00,
2013-01-20 12:30:00,40.8,19.5,30.23,NNW,347,5.0,9.0,42,0.00,,---,0.00,VWS V14.01,2013-01-20 18:30:00,
2013-01-20 12:32:00,40.6,19.3,30.23,NNW,345,4.0,9.0,42,0.00,,---,0.00,VWS V14.01,2013-01-20 18:32:00,
2013-01-20 12:36:00,40.6,19.9,30.23,NNW,343,5.0,9.0,43,0.00,,---,0.00,VWS V14.01,2013-01-20 18:36:00,
2013-01-20 12:37:00,40.5,20.3,30.23,NNW,335,3.0,9.0,44,0.00,,---,0.00,VWS V14.01,2013-01-20 18:37:00,
2013-01-20 12:41:00,40.7,20.5,30.23,NW,319,7.0,12.0,44,0.00,,---,0.00,VWS V14.01,2013-01-20 18:41:00,
2013-01-20 12:42:00,40.9,20.1,30.23,WNW,297,4.0,12.0,43,0.00,,---,0.00,VWS V14.01,2013-01-20 18:42:00,
2013-01-20 12:43:00,41.0,21.8,30.23,West,270,5.0,12.0,46,0.00,,---,0.00,VWS V14.01,2013-01-20 18:43:00,
2013-01-20 12:46:00,40.7,18.9,30.22,WNW,292,3.0,12.0,41,0.00,,---,0.00,VWS V14.01,2013-01-20 18:46:00,
2013-01-20 12:47:00,40.7,20.0,30.22,WNW,290,6.0,12.0,43,0.00,,---,0.00,VWS V14.01,2013-01-20 18:47:00,
2013-01-20 12:48:00,40.6,19.9,30.22,WSW,257,3.0,12.0,43,0.00,,---,0.00,VWS V14.01,2013-01-20 18:48:00,
2013-01-20 12:51:00,40.6,19.3,30.22,WSW,256,2.0,12.0,42,0.00,,---,0.00,VWS V14.01,2013-01-20 18:51:00,
2013-01-20 12:52:00,40.5,20.3,30.22,WSW,256,0.0,12.0,44,0.00,,---,0.00,VWS V14.01,2013-01-20 18:52:00,
2013-01-20 12:53:00,40.5,20.3,30.22,WSW,256,0.0,12.0,44,0.00,,---,0.00,VWS V14.01,2013-01-20 18:53:00,
2013-01-20 12:54:00,40.6,19.9,30.22,WSW,256,0.0,12.0,43,0.00,,---,0.00,VWS V14.01,2013-01-20 18:54:00,
2013-01-20 12:56:00,41.0,21.3,30.22,NW,314,4.0,12.0,45,0.00,,---,0.00,VWS V14.01,2013-01-20 18:56:00,
2013-01-20 12:57:00,41.3,22.1,30.22,NNW,339,5.0,12.0,46,0.00,,---,0.00,VWS V14.01,2013-01-20 18:57:00,
2013-01-20 12:58:00,41.3,20.5,30.22,NW,310,6.0,8.0,43,0.00,,---,0.00,VWS V14.01,2013-01-20 18:58:00,
2013-01-20 12:59:00,41.3,20.5,30.22,WNW,297,5.0,8.0,43,0.00,,---,0.00,VWS V14.01,2013-01-20 18:59:00,
2013-01-20 13:00:00,41.4,20.6,30.22,NW,321,8.0,12.0,43,0.00,,---,0.00,VWS V14.01,2013-01-20 19:00:00,
2013-01-20 13:01:00,41.0,20.2,30.22,West,280,3.0,8.0,43,0.00,,---,0.00,VWS V14.01,2013-01-20 19:01:00,
2013-01-20 13:02:00,41.0,20.2,30.22,NW,315,6.0,8.0,43,0.00,,---,0.00,VWS V14.01,2013-01-20 19:02:00,
2013-01-20 13:03:00,41.0,19.7,30.22,WNW,287,3.0,8.0,42,0.00,,---,0.00,VWS V14.01,2013-01-20 19:03:00,
2013-01-20 13:04:00,41.1,20.3,30.22,NW,321,5.0,8.0,43,0.00,,---,0.00,VWS V14.01,2013-01-20 19:04:00,
2013-01-20 13:07:00,41.2,19.9,30.22,NNW,330,1.0,8.0,42,0.00,,---,0.00,VWS V14.01,2013-01-20 19:07:00,
2013-01-20 13:08:00,41.1,19.8,30.22,NNW,341,3.0,8.0,42,0.00,,---,0.00,VWS V14.01,2013-01-20 19:08:00,
2013-01-20 13:09:00,41.0,20.2,30.22,NNE,26,6.0,8.0,43,0.00,,---,0.00,VWS V14.01,2013-01-20 19:09:00,
2013-01-20 13:12:00,41.5,21.2,30.22,NNE,17,4.0,8.0,44,0.00,,---,0.00,VWS V14.01,2013-01-20 19:12:00,
2013-01-20 13:13:00,41.2,21.0,30.22,NNE,17,3.0,8.0,44,0.00,,---,0.00,VWS V14.01,2013-01-20 19:13:00,
2013-01-20 13:14:00,41.3,22.1,30.22,North,360,5.0,8.0,46,0.00,,---,0.00,VWS V14.01,2013-01-20 19:14:00,
2013-01-20 13:17:00,41.3,21.6,30.22,NW,325,2.0,8.0,45,0.00,,---,0.00,VWS V14.01,2013-01-20 19:17:00,
2013-01-20 13:18:00,41.4,21.7,30.22,NE,37,2.0,8.0,45,0.00,,---,0.00,VWS V14.01,2013-01-20 19:18:00,
2013-01-20 13:19:00,42.2,23.4,30.22,WNW,290,5.0,9.0,47,0.00,,---,0.00,VWS V14.01,2013-01-20 19:19:00,
2013-01-20 13:22:00,41.6,20.8,30.22,NW,312,2.0,9.0,43,0.00,,---,0.00,VWS V14.01,2013-01-20 19:22:00,
2013-01-20 13:23:00,41.6,21.9,30.21,WNW,303,4.0,9.0,45,0.00,,---,0.00,VWS V14.01,2013-01-20 19:23:00,
2013-01-20 13:25:00,41.8,21.0,30.21,NNW,345,6.0,9.0,43,0.00,,---,0.00,VWS V14.01,2013-01-20 19:25:00,
2013-01-20 13:27:00,41.7,20.9,30.21,NNW,345,5.0,9.0,43,0.00,,---,0.00,VWS V14.01,2013-01-20 19:27:00,
2013-01-20 13:28:00,41.6,21.3,30.21,NW,306,5.0,6.0,44,0.00,,---,0.00,VWS V14.01,2013-01-20 19:28:00,
2013-01-20 13:29:00,41.6,21.3,30.21,North,351,5.0,7.0,44,0.00,,---,0.00,VWS V14.01,2013-01-20 19:29:00,
2013-01-20 13:30:00,41.5,21.2,30.21,NE,39,5.0,7.0,44,0.00,,---,0.00,VWS V14.01,2013-01-20 19:30:00,
2013-01-20 13:32:00,41.5,21.8,30.21,North,358,6.0,8.0,45,0.00,,---,0.00,VWS V14.01,2013-01-20 19:32:00,
2013-01-20 13:33:00,41.4,20.6,30.21,North,11,4.0,8.0,43,0.00,,---,0.00,VWS V14.01,2013-01-20 19:33:00,
2013-01-20 13:34:00,41.3,20.5,30.21,NNE,17,3.0,8.0,43,0.00,,---,0.00,VWS V14.01,2013-01-20 19:34:00,
2013-01-20 13:35:00,41.1,20.3,30.21,NNE,29,3.0,8.0,43,0.00,,---,0.00,VWS V14.01,2013-01-20 19:35:00,
2013-01-20 13:38:00,41.3,21.0,30.20,North,349,4.0,8.0,44,0.00,,---,0.00,VWS V14.01,2013-01-20 19:38:00,
2013-01-20 13:39:00,41.2,20.4,30.20,North,360,7.0,8.0,43,0.00,,---,0.00,VWS V14.01,2013-01-20 19:39:00,
2013-01-20 13:40:00,41.2,20.4,30.20,NE,46,1.0,8.0,43,0.00,,---,0.00,VWS V14.01,2013-01-20 19:40:00,
2013-01-20 13:43:00,42.0,21.7,30.20,NNE,12,6.0,8.0,44,0.00,,---,0.00,VWS V14.01,2013-01-20 19:43:00,
2013-01-20 13:44:00,42.0,21.1,30.21,WNW,300,4.0,8.0,43,0.00,,---,0.00,VWS V14.01,2013-01-20 19:44:00,
2013-01-20 13:45:00,42.0,21.1,30.21,WSW,243,4.0,8.0,43,0.00,,---,0.00,VWS V14.01,2013-01-20 19:45:00,
2013-01-20 13:48:00,41.9,21.0,30.20,WSW,253,1.0,8.0,43,0.00,,---,0.00,VWS V14.01,2013-01-20 19:48:00,
2013-01-20 13:49:00,42.0,21.7,30.20,SW,218,6.0,8.0,44,0.00,,---,0.00,VWS V14.01,2013-01-20 19:49:00,
2013-01-20 13:50:00,42.3,22.5,30.20,NW,304,9.0,9.0,45,0.00,,---,0.00,VWS V14.01,2013-01-20 19:50:00,
2013-01-20 13:53:00,42.2,21.9,30.20,NNW,335,6.0,9.0,44,0.00,,---,0.00,VWS V14.01,2013-01-20 19:53:00,
2013-01-20 13:54:00,42.1,21.2,30.21,NNW,335,3.0,9.0,43,0.00,,---,0.00,VWS V14.01,2013-01-20 19:54:00,
2013-01-20 13:55:00,41.8,21.0,30.21,NNW,335,1.0,9.0,43,0.00,,---,0.00,VWS V14.01,2013-01-20 19:55:00,
2013-01-20 13:58:00,41.8,21.5,30.21,NNE,17,2.0,2.0,44,0.00,,---,0.00,VWS V14.01,2013-01-20 19:58:00,
2013-01-20 13:59:00,41.6,20.8,30.21,NNE,17,1.0,2.0,43,0.00,,---,0.00,VWS V14.01,2013-01-20 19:59:00,
2013-01-20 14:00:00,41.8,21.5,30.21,NNE,17,2.0,9.0,44,0.00,,---,0.00,VWS V14.01,2013-01-20 20:00:00,
2013-01-20 14:01:00,41.5,21.8,30.21,NNW,341,1.0,2.0,45,0.00,,---,0.00,VWS V14.01,2013-01-20 20:01:00,
2013-01-20 14:03:00,41.8,21.0,30.21,West,260,2.0,7.0,43,0.00,,---,0.00,VWS V14.01,2013-01-20 20:03:00,
2013-01-20 14:04:00,41.8,21.0,30.21,WNW,283,5.0,7.0,43,0.00,,---,0.00,VWS V14.01,2013-01-20 20:04:00,
2013-01-20 14:06:00,41.8,21.0,30.20,West,260,3.0,7.0,43,0.00,,---,0.00,VWS V14.01,2013-01-20 20:06:00,
2013-01-20 14:08:00,42.0,22.2,30.21,NNW,345,4.0,7.0,45,0.00,,---,0.00,VWS V14.01,2013-01-20 20:08:00,
2013-01-20 14:09:00,42.1,21.2,30.20,North,2,3.0,7.0,43,0.00,,---,0.00,VWS V14.01,2013-01-20 20:09:00,
2013-01-20 14:11:00,41.9,21.0,30.20,NE,54,2.0,7.0,43,0.00,,---,0.00,VWS V14.01,2013-01-20 20:11:00,
2013-01-20 14:13:00,42.1,21.2,30.20,North,360,0.0,7.0,43,0.00,,---,0.00,VWS V14.01,2013-01-20 20:13:00,
2013-01-20 14:14:00,42.2,21.9,30.20,North,360,0.0,7.0,44,0.00,,---,0.00,VWS V14.01,2013-01-20 20:14:00,
2013-01-20 14:15:00,42.2,21.9,30.20,North,360,0.0,7.0,44,0.00,,---,0.00,VWS V14.01,2013-01-20 20:15:00,
2013-01-20 14:16:00,42.3,22.0,30.20,West,261,2.0,7.0,44,0.00,,---,0.00,VWS V14.01,2013-01-20 20:16:00,
2013-01-20 14:18:00,42.1,21.2,30.20,West,261,0.0,7.0,43,0.00,,---,0.00,VWS V14.01,2013-01-20 20:18:00,
2013-01-20 14:19:00,42.2,20.8,30.21,West,261,0.0,7.0,42,0.00,,---,0.00,VWS V14.01,2013-01-20 20:19:00,
2013-01-20 14:20:00,42.1,20.7,30.21,West,261,0.0,7.0,42,0.00,,---,0.00,VWS V14.01,2013-01-20 20:20:00,
2013-01-20 14:21:00,42.3,22.5,30.21,SW,229,2.0,7.0,45,0.00,,---,0.00,VWS V14.01,2013-01-20 20:21:00,
2013-01-20 14:24:00,42.5,21.6,30.21,WSW,249,5.0,7.0,43,0.00,,---,0.00,VWS V14.01,2013-01-20 20:24:00,
2013-01-20 14:25:00,42.3,20.9,30.20,WSW,245,3.0,7.0,42,0.00,,---,0.00,VWS V14.01,2013-01-20 20:25:00,
2013-01-20 14:26:00,42.2,20.8,30.21,WSW,254,2.0,7.0,42,0.00,,---,0.00,VWS V14.01,2013-01-20 20:26:00,
2013-01-20 14:29:00,42.3,22.0,30.21,NW,318,3.0,4.0,44,0.00,,---,0.00,VWS V14.01,2013-01-20 20:29:00,
2013-01-20 14:30:00,42.5,22.7,30.21,NW,313,3.0,7.0,45,0.00,,---,0.00,VWS V14.01,2013-01-20 20:30:00,
2013-01-20 14:31:00,42.5,22.1,30.21,West,272,2.0,7.0,44,0.00,,---,0.00,VWS V14.01,2013-01-20 20:31:00,
2013-01-20 14:34:00,42.9,23.6,30.21,West,260,4.0,7.0,46,0.00,,---,0.00,VWS V14.01,2013-01-20 20:34:00,
2013-01-20 14:35:00,42.9,23.6,30.21,NW,325,8.0,8.0,46,0.00,,---,0.00,VWS V14.01,2013-01-20 20:35:00,
2013-01-20 14:36:00,43.0,22.6,30.21,NW,314,7.0,8.0,44,0.00,,---,0.00,VWS V14.01,2013-01-20 20:36:00,
2013-01-20 14:37:00,43.0,22.0,30.21,WNW,286,4.0,8.0,43,0.00,,---,0.00,VWS V14.01,2013-01-20 20:37:00,
2013-01-20 14:39:00,42.9,21.4,30.21,WNW,285,4.0,8.0,42,0.00,,---,0.00,VWS V14.01,2013-01-20 20:39:00,
2013-01-20 14:40:00,42.8,21.3,30.21,NW,311,2.0,8.0,42,0.00,,---,0.00,VWS V14.01,2013-01-20 20:40:00,
2013-01-20 14:41:00,42.7,21.8,30.21,WNW,301,3.0,8.0,43,0.00,,---,0.00,VWS V14.01,2013-01-20 20:41:00,
2013-01-20 14:42:00,42.7,21.8,30.21,West,280,3.0,8.0,43,0.00,,---,0.00,VWS V14.01,2013-01-20 20:42:00,
2013-01-20 14:44:00,42.5,21.6,30.20,North,357,5.0,8.0,43,0.00,,---,0.00,VWS V14.01,2013-01-20 20:44:00,
2013-01-20 14:45:00,42.6,21.7,30.20,North,3,6.0,8.0,43,0.00,,---,0.00,VWS V14.01,2013-01-20 20:45:00,
2013-01-20 14:46:00,42.6,21.1,30.20,NW,313,5.0,8.0,42,0.00,,---,0.00,VWS V14.01,2013-01-20 20:46:00,
2013-01-20 14:47:00,42.5,21.0,30.20,NW,325,6.0,8.0,42,0.00,,---,0.00,VWS V14.01,2013-01-20 20:47:00,
2013-01-20 14:49:00,42.4,21.0,30.20,NW,314,4.0,8.0,42,0.00,,---,0.00,VWS V14.01,2013-01-20 20:49:00,
2013-01-20 14:50:00,42.4,21.0,30.20,NNW,345,5.0,8.0,42,0.00,,---,0.00,VWS V14.01,2013-01-20 20:50:00,
2013-01-20 14:51:00,42.4,20.4,30.20,NNW,335,5.0,8.0,41,0.00,,---,0.00,VWS V14.01,2013-01-20 20:51:00,
2013-01-20 14:52:00,42.4,21.0,30.20,NNW,343,4.0,8.0,42,0.00,,---,0.00,VWS V14.01,2013-01-20 20:52:00,
2013-01-20 14:54:00,42.7,21.2,30.20,North,8,4.0,8.0,42,0.00,,---,0.00,VWS V14.01,2013-01-20 20:54:00,
2013-01-20 14:55:00,42.6,21.1,30.21,NNE,20,6.0,8.0,42,0.00,,---,0.00,VWS V14.01,2013-01-20 20:55:00,
2013-01-20 14:56:00,42.5,21.6,30.21,North,357,3.0,8.0,43,0.00,,---,0.00,VWS V14.01,2013-01-20 20:56:00,
2013-01-20 14:57:00,42.5,21.6,30.21,NNW,345,3.0,8.0,43,0.00,,---,0.00,VWS V14.01,2013-01-20 20:57:00,
2013-01-20 14:59:00,42.9,22.5,30.21,NW,310,6.0,7.0,44,0.00,,---,0.00,VWS V14.01,2013-01-20 20:59:00,
2013-01-20 15:00:00,43.0,22.0,30.20,NW,316,8.0,8.0,43,0.00,,---,0.00,VWS V14.01,2013-01-20 21:00:00,
2013-01-20 15:02:00,42.9,20.8,30.20,WNW,299,2.0,8.0,41,0.00,,---,0.00,VWS V14.01,2013-01-20 21:02:00,
2013-01-20 15:05:00,42.9,20.8,30.20,WNW,293,6.0,11.0,41,0.00,,---,0.00,VWS V14.01,2013-01-20 21:05:00,
2013-01-20 15:07:00,42.7,20.7,30.20,North,358,2.0,11.0,41,0.00,,---,0.00,VWS V14.01,2013-01-20 21:07:00,
2013-01-20 15:10:00,42.6,21.1,30.20,WNW,303,3.0,11.0,42,0.00,,---,0.00,VWS V14.01,2013-01-20 21:10:00,
2013-01-20 15:12:00,43.0,22.0,30.20,NW,308,3.0,11.0,43,0.00,,---,0.00,VWS V14.01,2013-01-20 21:12:00,
2013-01-20 15:15:00,43.0,21.5,30.20,NNW,345,5.0,11.0,42,0.00,,---,0.00,VWS V14.01,2013-01-20 21:15:00,
2013-01-20 15:17:00,42.9,22.0,30.20,NNW,335,4.0,11.0,43,0.00,,---,0.00,VWS V14.01,2013-01-20 21:17:00,
2013-01-20 15:18:00,42.9,22.5,30.20,NW,318,7.0,11.0,44,0.00,,---,0.00,VWS V14.01,2013-01-20 21:18:00,
2013-01-20 15:20:00,42.8,22.4,30.20,NNW,330,9.0,11.0,44,0.00,,---,0.00,VWS V14.01,2013-01-20 21:20:00,
2013-01-20 15:22:00,42.6,21.1,30.20,NNW,345,4.0,11.0,42,0.00,,---,0.00,VWS V14.01,2013-01-20 21:22:00,
2013-01-20 15:23:00,42.5,21.6,30.20,North,352,6.0,11.0,43,0.00,,---,0.00,VWS V14.01,2013-01-20 21:23:00,
2013-01-20 15:25:00,42.6,22.2,30.20,NNW,335,5.0,11.0,44,0.00,,---,0.00,VWS V14.01,2013-01-20 21:25:00,
2013-01-20 15:28:00,42.6,21.1,30.20,NW,316,6.0,11.0,42,0.00,,---,0.00,VWS V14.01,2013-01-20 21:28:00,
2013-01-20 15:30:00,42.3,20.9,30.20,WNW,287,6.0,10.0,42,0.00,,---,0.00,VWS V14.01,2013-01-20 21:30:00,
2013-01-20 15:33:00,42.2,21.3,30.20,WNW,301,5.0,10.0,43,0.00,,---,0.00,VWS V14.01,2013-01-20 21:33:00,
2013-01-20 15:35:00,42.2,21.3,30.20,NW,314,4.0,10.0,43,0.00,,---,0.00,VWS V14.01,2013-01-20 21:35:00,
2013-01-20 15:36:00,42.2,21.3,30.21,NW,325,5.0,10.0,43,0.00,,---,0.00,VWS V14.01,2013-01-20 21:36:00,
2013-01-20 15:38:00,42.0,20.6,30.20,NW,309,4.0,10.0,42,0.00,,---,0.00,VWS V14.01,2013-01-20 21:38:00,
2013-01-20 15:41:00,41.9,21.0,30.20,NW,315,5.0,10.0,43,0.00,,---,0.00,VWS V14.01,2013-01-20 21:41:00,
2013-01-20 15:43:00,41.9,21.0,30.21,NW,312,8.0,10.0,43,0.00,,---,0.00,VWS V14.01,2013-01-20 21:43:00,
2013-01-20 15:46:00,41.9,19.9,30.21,NNW,335,5.0,10.0,41,0.00,,---,0.00,VWS V14.01,2013-01-20 21:46:00,
2013-01-20 15:48:00,41.8,21.5,30.21,NW,319,5.0,10.0,44,0.00,,---,0.00,VWS V14.01,2013-01-20 21:48:00,
2013-01-20 15:51:00,41.8,19.3,30.21,NW,325,4.0,10.0,40,0.00,,---,0.00,VWS V14.01,2013-01-20 21:51:00,
2013-01-20 15:52:00,41.8,19.8,30.21,NNW,343,5.0,10.0,41,0.00,,---,0.00,VWS V14.01,2013-01-20 21:52:00,
2013-01-20 15:53:00,41.8,19.8,30.21,NNW,347,3.0,10.0,41,0.00,,---,0.00,VWS V14.01,2013-01-20 21:53:00,
2013-01-20 15:56:00,41.8,19.8,30.21,NNW,348,6.0,10.0,41,0.00,,---,0.00,VWS V14.01,2013-01-20 21:56:00,
2013-01-20 15:57:00,41.8,19.8,30.21,NNW,330,5.0,10.0,41,0.00,,---,0.00,VWS V14.01,2013-01-20 21:57:00,
2013-01-20 15:58:00,41.8,20.4,30.21,NNW,344,7.0,8.0,42,0.00,,---,0.00,VWS V14.01,2013-01-20 21:58:00,
2013-01-20 15:59:00,41.8,20.4,30.21,NNW,335,7.0,8.0,42,0.00,,---,0.00,VWS V14.01,2013-01-20 21:59:00,
2013-01-20 16:00:00,41.7,20.3,30.21,NW,318,5.0,10.0,42,0.00,,---,0.00,VWS V14.01,2013-01-20 22:00:00,
2013-01-20 16:01:00,41.8,19.8,30.21,NW,309,6.0,8.0,41,0.00,,---,0.00,VWS V14.01,2013-01-20 22:01:00,
2013-01-20 16:02:00,41.7,20.3,30.21,NW,325,4.0,8.0,42,0.00,,---,0.00,VWS V14.01,2013-01-20 22:02:00,
2013-01-20 16:04:00,41.5,20.1,30.21,NNW,339,5.0,8.0,42,0.00,,---,0.00,VWS V14.01,2013-01-20 22:04:00,
2013-01-20 16:07:00,41.5,19.6,30.21,North,359,5.0,8.0,41,0.00,,---,0.00,VWS V14.01,2013-01-20 22:07:00,
2013-01-20 16:08:00,41.5,19.6,30.21,North,358,4.0,8.0,41,0.00,,---,0.00,VWS V14.01,2013-01-20 22:08:00,
2013-01-20 16:09:00,41.4,19.5,30.21,North,10,4.0,8.0,41,0.00,,---,0.00,VWS V14.01,2013-01-20 22:09:00,
2013-01-20 16:12:00,41.4,19.5,30.21,NW,318,5.0,8.0,41,0.00,,---,0.00,VWS V14.01,2013-01-20 22:12:00,
2013-01-20 16:13:00,41.4,20.0,30.21,NW,325,7.0,8.0,42,0.00,,---,0.00,VWS V14.01,2013-01-20 22:13:00,
2013-01-20 16:14:00,41.4,20.0,30.21,NW,325,4.0,8.0,42,0.00,,---,0.00,VWS V14.01,2013-01-20 22:14:00,
2013-01-20 16:18:00,41.3,20.0,30.21,NNW,330,9.0,9.0,42,0.00,,---,0.00,VWS V14.01,2013-01-20 22:18:00,
2013-01-20 16:19:00,41.2,19.9,30.21,NW,325,4.0,9.0,42,0.00,,---,0.00,VWS V14.01,2013-01-20 22:19:00,
2013-01-20 16:23:00,41.1,19.8,30.21,North,7,4.0,9.0,42,0.00,,---,0.00,VWS V14.01,2013-01-20 22:23:00,
2013-01-20 16:24:00,41.0,19.1,30.21,NNW,335,3.0,9.0,41,0.00,,---,0.00,VWS V14.01,2013-01-20 22:24:00,
2013-01-20 16:28:00,40.9,19.0,30.21,North,352,6.0,7.0,41,0.00,,---,0.00,VWS V14.01,2013-01-20 22:28:00,
2013-01-20 16:29:00,40.9,19.6,30.21,NNW,347,6.0,8.0,42,0.00,,---,0.00,VWS V14.01,2013-01-20 22:29:00,
2013-01-20 16:30:00,40.9,19.0,30.21,NW,325,7.0,11.0,41,0.00,,---,0.00,VWS V14.01,2013-01-20 22:30:00,
2013-01-20 16:33:00,40.6,19.3,30.21,NW,320,3.0,8.0,42,0.00,,---,0.00,VWS V14.01,2013-01-20 22:33:00,
2013-01-20 16:34:00,40.6,19.3,30.21,NW,325,4.0,8.0,42,0.00,,---,0.00,VWS V14.01,2013-01-20 22:34:00,
2013-01-20 16:35:00,40.5,19.8,30.21,NNW,341,5.0,8.0,43,0.00,,---,0.00,VWS V14.01,2013-01-20 22:35:00,
2013-01-20 16:38:00,40.4,20.2,30.21,NNW,341,5.0,10.0,44,0.00,,---,0.00,VWS V14.01,2013-01-20 22:38:00,
2013-01-20 16:39:00,40.4,19.7,30.21,North,360,7.0,10.0,43,0.00,,---,0.00,VWS V14.01,2013-01-20 22:39:00,
2013-01-20 16:40:00,40.4,19.7,30.21,WNW,298,7.0,10.0,43,0.00,,---,0.00,VWS V14.01,2013-01-20 22:40:00,
2013-01-20 16:43:00,40.2,20.6,30.21,NNW,345,6.0,10.0,45,0.00,,---,0.00,VWS V14.01,2013-01-20 22:43:00,
2013-01-20 16:45:00,40.2,20.6,30.21,North,349,3.0,10.0,45,0.00,,---,0.00,VWS V14.01,2013-01-20 22:45:00,
2013-01-20 16:49:00,39.9,20.3,30.21,NNW,335,4.0,10.0,45,0.00,,---,0.00,VWS V14.01,2013-01-20 22:49:00,
2013-01-20 16:50:00,39.9,20.8,30.21,NNW,339,4.0,10.0,46,0.00,,---,0.00,VWS V14.01,2013-01-20 22:50:00,
2013-01-20 16:54:00,39.7,20.1,30.21,NNW,335,2.0,10.0,45,0.00,,---,0.00,VWS V14.01,2013-01-20 22:54:00,
2013-01-20 16:55:00,39.7,20.1,30.21,North,1,3.0,10.0,45,0.00,,---,0.00,VWS V14.01,2013-01-20 22:55:00,
2013-01-20 16:59:00,39.5,20.5,30.21,NNW,343,7.0,7.0,46,0.00,,---,0.00,VWS V14.01,2013-01-20 22:59:00,
2013-01-20 17:00:00,39.5,20.5,30.21,NNW,335,5.0,7.0,46,0.00,,---,0.00,VWS V14.01,2013-01-20 23:00:00,
2013-01-20 17:01:00,39.4,20.4,30.21,NNW,341,5.0,7.0,46,0.00,,---,0.00,VWS V14.01,2013-01-20 23:01:00,
2013-01-20 17:04:00,39.5,20.5,30.21,NNE,15,7.0,9.0,46,0.00,,---,0.00,VWS V14.01,2013-01-20 23:04:00,
2013-01-20 17:05:00,39.5,20.5,30.21,North,4,3.0,9.0,46,0.00,,---,0.00,VWS V14.01,2013-01-20 23:05:00,
2013-01-20 17:06:00,39.5,20.5,30.21,North,354,3.0,9.0,46,0.00,,---,0.00,VWS V14.01,2013-01-20 23:06:00,
2013-01-20 17:10:00,39.1,20.1,30.22,NNW,335,3.0,9.0,46,0.00,,---,0.00,VWS V14.01,2013-01-20 23:10:00,
2013-01-20 17:11:00,39.0,20.5,30.21,NNW,335,2.0,9.0,47,0.00,,---,0.00,VWS V14.01,2013-01-20 23:11:00,
2013-01-20 17:15:00,38.6,21.1,30.22,North,359,2.0,9.0,49,0.00,,---,0.00,VWS V14.01,2013-01-20 23:15:00,
2013-01-20 17:16:00,38.4,21.4,30.21,North,10,4.0,9.0,50,0.00,,---,0.00,VWS V14.01,2013-01-20 23:16:00,
2013-01-20 17:20:00,37.9,20.9,30.21,North,358,2.0,9.0,50,0.00,,---,0.00,VWS V14.01,2013-01-20 23:20:00,
2013-01-20 17:21:00,37.9,20.9,30.21,NNW,343,3.0,9.0,50,0.00,,---,0.00,VWS V14.01,2013-01-20 23:21:00,
2013-01-20 17:25:00,37.9,20.5,30.21,NNW,335,3.0,9.0,49,0.00,,---,0.00,VWS V14.01,2013-01-20 23:25:00,
2013-01-20 17:26:00,37.9,20.5,30.21,NNW,341,4.0,9.0,49,0.00,,---,0.00,VWS V14.01,2013-01-20 23:26:00,
2013-01-20 17:27:00,37.9,20.5,30.21,NW,320,3.0,9.0,49,0.00,,---,0.00,VWS V14.01,2013-01-20 23:27:00,
2013-01-20 17:30:00,37.8,20.4,30.21,NNW,335,2.0,5.0,49,0.00,,---,0.00,VWS V14.01,2013-01-20 23:30:00,
2013-01-20 17:32:00,37.7,20.3,30.21,NNW,335,2.0,5.0,49,0.00,,---,0.00,VWS V14.01,2013-01-20 23:32:00,
2013-01-20 17:35:00,37.4,20.5,30.22,NNW,335,2.0,5.0,50,0.00,,---,0.00,VWS V14.01,2013-01-20 23:35:00,
2013-01-20 17:37:00,37.3,20.4,30.22,NNW,335,2.0,5.0,50,0.00,,---,0.00,VWS V14.01,2013-01-20 23:37:00,
2013-01-20 17:40:00,37.3,19.9,30.22,North,4,2.0,5.0,49,0.00,,---,0.00,VWS V14.01,2013-01-20 23:40:00,
2013-01-20 17:42:00,37.4,19.5,30.22,North,4,2.0,5.0,48,0.00,,---,0.00,VWS V14.01,2013-01-20 23:42:00,
2013-01-20 17:46:00,37.3,19.4,30.22,NNW,345,3.0,5.0,48,0.00,,---,0.00,VWS V14.01,2013-01-20 23:46:00,
2013-01-20 17:47:00,37.3,19.4,30.22,North,354,3.0,5.0,48,0.00,,---,0.00,VWS V14.01,2013-01-20 23:47:00,
2013-01-20 17:51:00,37.1,19.2,30.21,North,357,2.0,5.0,48,0.00,,---,0.00,VWS V14.01,2013-01-20 23:51:00,
2013-01-20 17:52:00,37.1,19.2,30.21,North,357,1.0,5.0,48,0.00,,---,0.00,VWS V14.01,2013-01-20 23:52:00,
2013-01-20 17:53:00,37.1,19.2,30.21,North,357,1.0,5.0,48,0.00,,---,0.00,VWS V14.01,2013-01-20 23:53:00,
2013-01-20 17:56:00,37.0,19.1,30.22,North,357,2.0,5.0,48,0.00,,---,0.00,VWS V14.01,2013-01-20 23:56:00,
2013-01-20 17:57:00,37.0,19.1,30.21,North,352,2.0,5.0,48,0.00,,---,0.00,VWS V14.01,2013-01-20 23:57:00,
2013-01-20 17:58:00,37.0,19.1,30.21,North,352,3.0,5.0,48,0.00,,---,0.00,VWS V14.01,2013-01-20 23:58:00,
2013-01-20 18:00:00,37.0,19.1,30.22,North,353,2.0,5.0,48,0.00,,---,0.00,VWS V14.01,2013-01-21 00:00:00,
2013-01-20 18:01:00,36.9,19.1,30.21,North,353,0.0,4.0,48,0.00,,---,0.00,VWS V14.01,2013-01-21 00:01:00,
2013-01-20 18:02:00,36.9,19.1,30.21,North,353,1.0,4.0,48,0.00,,---,0.00,VWS V14.01,2013-01-21 00:02:00,
2013-01-20 18:03:00,37.0,19.1,30.21,North,352,1.0,4.0,48,0.00,,---,0.00,VWS V14.01,2013-01-21 00:03:00,
2013-01-20 18:06:00,36.8,19.0,30.21,NNW,348,2.0,4.0,48,0.00,,---,0.00,VWS V14.01,2013-01-21 00:06:00,
2013-01-20 18:08:00,36.8,19.0,30.22,NNW,348,2.0,4.0,48,0.00,,---,0.00,VWS V14.01,2013-01-21 00:08:00,
2013-01-20 18:11:00,36.5,19.6,30.22,NNW,335,1.0,4.0,50,0.00,,---,0.00,VWS V14.01,2013-01-21 00:11:00,
2013-01-20 18:13:00,36.3,19.9,30.21,North,6,3.0,4.0,51,0.00,,---,0.00,VWS V14.01,2013-01-21 00:13:00,
2013-01-20 18:16:00,36.2,19.8,30.21,NNW,343,3.0,7.0,51,0.00,,---,0.00,VWS V14.01,2013-01-21 00:16:00,
2013-01-20 18:18:00,36.1,20.2,30.21,NW,319,4.0,7.0,52,0.00,,---,0.00,VWS V14.01,2013-01-21 00:18:00,
2013-01-20 18:21:00,35.9,20.5,30.21,NW,318,3.0,7.0,53,0.00,,---,0.00,VWS V14.01,2013-01-21 00:21:00,
2013-01-20 18:23:00,35.8,20.4,30.21,NW,318,3.0,7.0,53,0.00,,---,0.00,VWS V14.01,2013-01-21 00:23:00,
2013-01-20 18:26:00,35.7,20.3,30.22,NNW,340,2.0,7.0,53,0.00,,---,0.00,VWS V14.01,2013-01-21 00:26:00,
2013-01-20 18:28:00,35.7,20.3,30.22,NW,325,4.0,4.0,53,0.00,,---,0.00,VWS V14.01,2013-01-21 00:28:00,
2013-01-20 18:29:00,35.7,20.3,30.22,NNW,340,4.0,5.0,53,0.00,,---,0.00,VWS V14.01,2013-01-21 00:29:00,
2013-01-20 18:30:00,35.7,20.3,30.22,North,358,2.0,7.0,53,0.00,,---,0.00,VWS V14.01,2013-01-21 00:30:00,
2013-01-20 18:31:00,35.7,20.3,30.22,NNW,335,6.0,6.0,53,0.00,,---,0.00,VWS V14.01,2013-01-21 00:31:00,
2013-01-20 18:33:00,35.7,20.3,30.22,North,357,3.0,7.0,53,0.00,,---,0.00,VWS V14.01,2013-01-21 00:33:00,
2013-01-20 18:34:00,35.7,20.3,30.22,NW,319,5.0,7.0,53,0.00,,---,0.00,VWS V14.01,2013-01-21 00:34:00,
2013-01-20 18:36:00,35.7,20.7,30.22,NNW,330,2.0,7.0,54,0.00,,---,0.00,VWS V14.01,2013-01-21 00:36:00,
2013-01-20 18:38:00,35.6,20.6,30.22,NNW,343,3.0,7.0,54,0.00,,---,0.00,VWS V14.01,2013-01-21 00:38:00,
2013-01-20 18:39:00,35.5,20.5,30.22,North,349,4.0,7.0,54,0.00,,---,0.00,VWS V14.01,2013-01-21 00:39:00,
2013-01-20 18:41:00,35.5,21.0,30.22,NNW,330,4.0,7.0,55,0.00,,---,0.00,VWS V14.01,2013-01-21 00:41:00,
2013-01-20 18:44:00,35.4,20.9,30.22,North,350,4.0,7.0,55,0.00,,---,0.00,VWS V14.01,2013-01-21 00:44:00,
2013-01-20 18:47:00,35.4,20.9,30.22,NW,317,5.0,7.0,55,0.00,,---,0.00,VWS V14.01,2013-01-21 00:47:00,
2013-01-20 18:49:00,35.4,20.9,30.22,WNW,297,6.0,9.0,55,0.00,,---,0.00,VWS V14.01,2013-01-21 00:49:00,
2013-01-20 18:50:00,35.4,20.9,30.22,NW,314,4.0,9.0,55,0.00,,---,0.00,VWS V14.01,2013-01-21 00:50:00,
2013-01-20 18:53:00,35.3,20.8,30.22,NW,318,4.0,10.0,55,0.00,,---,0.00,VWS V14.01,2013-01-21 00:53:00,
2013-01-20 18:55:00,35.3,20.8,30.22,NW,325,4.0,10.0,55,0.00,,---,0.00,VWS V14.01,2013-01-21 00:55:00,
2013-01-20 18:58:00,35.2,21.1,30.22,North,9,4.0,10.0,56,0.00,,---,0.00,VWS V14.01,2013-01-21 00:58:00,
2013-01-20 19:00:00,35.1,21.0,30.22,NNW,335,3.0,9.0,56,0.00,,---,0.00,VWS V14.01,2013-01-21 01:00:00,
2013-01-20 19:03:00,35.0,20.5,30.22,NNW,335,3.0,11.0,55,0.00,,---,0.00,VWS V14.01,2013-01-21 01:03:00,
2013-01-20 19:05:00,35.0,20.5,30.22,NNW,330,3.0,11.0,55,0.00,,---,0.00,VWS V14.01,2013-01-21 01:05:00,
2013-01-20 19:06:00,35.0,20.9,30.22,NW,325,3.0,11.0,56,0.00,,---,0.00,VWS V14.01,2013-01-21 01:06:00,
2013-01-20 19:08:00,34.9,20.8,30.21,NW,317,6.0,11.0,56,0.00,,---,0.00,VWS V14.01,2013-01-21 01:08:00,
2013-01-20 19:10:00,34.8,20.7,30.21,NW,325,4.0,11.0,56,0.00,,---,0.00,VWS V14.01,2013-01-21 01:10:00,
2013-01-20 19:11:00,34.8,20.7,30.21,NW,308,7.0,11.0,56,0.00,,---,0.00,VWS V14.01,2013-01-21 01:11:00,
2013-01-20 19:13:00,34.7,20.6,30.21,NW,325,4.0,11.0,56,0.00,,---,0.00,VWS V14.01,2013-01-21 01:13:00,
2013-01-20 19:15:00,34.5,20.9,30.22,NNW,340,4.0,11.0,57,0.00,,---,0.00,VWS V14.01,2013-01-21 01:15:00,
2013-01-20 19:16:00,34.5,20.9,30.22,NNW,335,3.0,11.0,57,0.00,,---,0.00,VWS V14.01,2013-01-21 01:16:00,
2013-01-20 19:18:00,34.3,20.7,30.22,North,353,2.0,11.0,57,0.00,,---,0.00,VWS V14.01,2013-01-21 01:18:00,
2013-01-20 19:20:00,34.3,20.7,30.22,NNE,12,3.0,11.0,57,0.00,,---,0.00,VWS V14.01,2013-01-21 01:20:00,
2013-01-20 19:21:00,34.2,20.6,30.22,NNE,16,3.0,11.0,57,0.00,,---,0.00,VWS V14.01,2013-01-21 01:21:00,
2013-01-20 19:23:00,34.1,20.9,30.22,North,360,2.0,11.0,58,0.00,,---,0.00,VWS V14.01,2013-01-21 01:23:00,
2013-01-20 19:25:00,34.1,20.5,30.22,NNE,31,1.0,11.0,57,0.00,,---,0.00,VWS V14.01,2013-01-21 01:25:00,
2013-01-20 19:26:00,34.1,20.5,30.22,NE,40,3.0,11.0,57,0.00,,---,0.00,VWS V14.01,2013-01-21 01:26:00,
2013-01-20 19:28:00,34.1,20.5,30.22,NNE,13,3.0,7.0,57,0.00,,---,0.00,VWS V14.01,2013-01-21 01:28:00,
2013-01-20 19:30:00,34.1,20.5,30.22,North,1,4.0,11.0,57,0.00,,---,0.00,VWS V14.01,2013-01-21 01:30:00,
2013-01-20 19:31:00,34.1,20.5,30.22,North,354,6.0,7.0,57,0.00,,---,0.00,VWS V14.01,2013-01-21 01:31:00,
2013-01-20 19:34:00,34.2,20.6,30.22,North,4,3.0,7.0,57,0.00,,---,0.00,VWS V14.01,2013-01-21 01:34:00,
2013-01-20 19:36:00,34.2,20.6,30.22,NNW,335,1.0,7.0,57,0.00,,---,0.00,VWS V14.01,2013-01-21 01:36:00,
2013-01-20 19:37:00,34.1,20.5,30.22,NNW,335,3.0,7.0,57,0.00,,---,0.00,VWS V14.01,2013-01-21 01:37:00,
2013-01-20 19:39:00,34.0,20.4,30.22,NNW,330,3.0,7.0,57,0.00,,---,0.00,VWS V14.01,2013-01-21 01:39:00,
2013-01-20 19:41:00,34.0,20.4,30.22,NNW,339,2.0,7.0,57,0.00,,---,0.00,VWS V14.01,2013-01-21 01:41:00,
2013-01-20 19:42:00,33.9,20.3,30.22,NNW,341,5.0,7.0,57,0.00,,---,0.00,VWS V14.01,2013-01-21 01:42:00,
2013-01-20 19:44:00,33.9,20.3,30.22,NNW,330,4.0,7.0,57,0.00,,---,0.00,VWS V14.01,2013-01-21 01:44:00,
2013-01-20 19:46:00,33.8,20.6,30.22,NNW,335,5.0,7.0,58,0.00,,---,0.00,VWS V14.01,2013-01-21 01:46:00,
2013-01-20 19:47:00,33.8,20.2,30.22,NNW,335,7.0,7.0,57,0.00,,---,0.00,VWS V14.01,2013-01-21 01:47:00,
2013-01-20 19:49:00,33.8,20.6,30.22,NNW,341,2.0,7.0,58,0.00,,---,0.00,VWS V14.01,2013-01-21 01:49:00,
2013-01-20 19:52:00,33.5,20.3,30.22,NNW,341,1.0,7.0,58,0.00,,---,0.00,VWS V14.01,2013-01-21 01:52:00,
2013-01-20 19:55:00,33.3,20.5,30.22,North,358,3.0,7.0,59,0.00,,---,0.00,VWS V14.01,2013-01-21 01:55:00,
2013-01-20 19:57:00,33.3,20.5,30.22,North,356,5.0,7.0,59,0.00,,---,0.00,VWS V14.01,2013-01-21 01:57:00,
2013-01-20 19:58:00,33.3,20.5,30.22,NNW,330,3.0,7.0,59,0.00,,---,0.00,VWS V14.01,2013-01-21 01:58:00,
2013-01-20 20:00:00,33.3,20.5,30.22,NNE,12,2.0,5.0,59,0.00,,---,0.00,VWS V14.01,2013-01-21 02:00:00,
2013-01-20 20:02:00,33.3,20.5,30.22,NNE,12,2.0,5.0,59,0.00,,---,0.00,VWS V14.01,2013-01-21 02:02:00,
2013-01-20 20:03:00,33.2,20.4,30.21,North,8,3.0,5.0,59,0.00,,---,0.00,VWS V14.01,2013-01-21 02:03:00,
2013-01-20 20:05:00,33.1,20.4,30.22,NNW,335,3.0,5.0,59,0.00,,---,0.00,VWS V14.01,2013-01-21 02:05:00,
2013-01-20 20:07:00,33.0,20.2,30.22,NNW,343,2.0,5.0,59,0.00,,---,0.00,VWS V14.01,2013-01-21 02:07:00,
2013-01-20 20:08:00,33.0,20.2,30.22,NNW,343,3.0,5.0,59,0.00,,---,0.00,VWS V14.01,2013-01-21 02:08:00,
2013-01-20 20:10:00,33.0,20.2,30.22,NNW,343,2.0,5.0,59,0.00,,---,0.00,VWS V14.01,2013-01-21 02:10:00,
2013-01-20 20:12:00,32.9,20.2,30.22,NNW,342,2.0,5.0,59,0.00,,---,0.00,VWS V14.01,2013-01-21 02:12:00,
2013-01-20 20:13:00,32.8,20.9,30.22,NNW,330,2.0,5.0,61,0.00,,---,0.00,VWS V14.01,2013-01-21 02:13:00,
2013-01-20 20:15:00,32.5,20.6,30.22,NNW,330,3.0,5.0,61,0.00,,---,0.00,VWS V14.01,2013-01-21 02:15:00,
2013-01-20 20:17:00,32.4,20.5,30.22,NNW,330,2.0,5.0,61,0.00,,---,0.00,VWS V14.01,2013-01-21 02:17:00,
2013-01-20 20:19:00,32.3,20.4,30.22,NNW,330,1.0,5.0,61,0.00,,---,0.00,VWS V14.01,2013-01-21 02:19:00,
2013-01-20 20:20:00,32.3,20.4,30.22,NNW,330,3.0,5.0,61,0.00,,---,0.00,VWS V14.01,2013-01-21 02:20:00,
2013-01-20 20:22:00,32.3,20.4,30.22,NNW,330,2.0,5.0,61,0.00,,---,0.00,VWS V14.01,2013-01-21 02:22:00,
2013-01-20 20:24:00,32.2,20.7,30.22,NNW,330,3.0,5.0,62,0.00,,---,0.00,VWS V14.01,2013-01-21 02:24:00,
2013-01-20 20:26:00,32.1,20.6,30.21,NNW,330,3.0,5.0,62,0.00,,---,0.00,VWS V14.01,2013-01-21 02:26:00,
2013-01-20 20:27:00,32.0,20.5,30.21,NNW,330,3.0,5.0,62,0.00,,---,0.00,VWS V14.01,2013-01-21 02:27:00,
2013-01-20 20:28:00,31.9,20.4,30.22,NNW,330,2.0,3.0,62,0.00,,---,0.00,VWS V14.01,2013-01-21 02:28:00,
2013-01-20 20:29:00,31.8,20.7,30.22,NW,315,4.0,4.0,63,0.00,,---,0.00,VWS V14.01,2013-01-21 02:29:00,
2013-01-20 20:30:00,32.0,20.5,30.21,NNW,330,3.0,5.0,62,0.00,,---,0.00,VWS V14.01,2013-01-21 02:30:00,
2013-01-20 20:31:00,31.9,20.4,30.22,NW,317,2.0,5.0,62,0.00,,---,0.00,VWS V14.01,2013-01-21 02:31:00,
2013-01-20 20:33:00,31.9,20.4,30.22,NW,317,2.0,5.0,62,0.00,,---,0.00,VWS V14.01,2013-01-21 02:33:00,
2013-01-20 20:34:00,31.9,20.4,30.22,NW,317,3.0,5.0,62,0.00,,---,0.00,VWS V14.01,2013-01-21 02:34:00,
2013-01-20 20:37:00,32.0,20.5,30.22,NW,317,1.0,5.0,62,0.00,,---,0.00,VWS V14.01,2013-01-21 02:37:00,
2013-01-20 20:38:00,32.0,20.5,30.22,NW,317,0.0,5.0,62,0.00,,---,0.00,VWS V14.01,2013-01-21 02:38:00,
2013-01-20 20:39:00,32.0,20.5,30.21,NW,317,0.0,5.0,62,0.00,,---,0.00,VWS V14.01,2013-01-21 02:39:00,
2013-01-20 20:42:00,31.9,20.4,30.22,NW,317,0.0,5.0,62,0.00,,---,0.00,VWS V14.01,2013-01-21 02:42:00,
2013-01-20 20:43:00,31.8,20.3,30.22,NW,317,0.0,5.0,62,0.00,,---,0.00,VWS V14.01,2013-01-21 02:43:00,
2013-01-20 20:45:00,31.8,20.3,30.22,NW,317,0.0,5.0,62,0.00,,---,0.00,VWS V14.01,2013-01-21 02:45:00,
2013-01-20 20:48:00,31.7,20.2,30.22,NW,317,0.0,5.0,62,0.00,,---,0.00,VWS V14.01,2013-01-21 02:48:00,
2013-01-20 20:49:00,31.8,20.3,30.22,NW,317,1.0,5.0,62,0.00,,---,0.00,VWS V14.01,2013-01-21 02:49:00,
2013-01-20 20:50:00,31.8,20.3,30.22,NW,317,1.0,5.0,62,0.00,,---,0.00,VWS V14.01,2013-01-21 02:50:00,
2013-01-20 20:53:00,31.8,20.3,30.22,NW,317,1.0,5.0,62,0.00,,---,0.00,VWS V14.01,2013-01-21 02:53:00,
2013-01-20 20:54:00,31.8,20.3,30.22,NW,317,1.0,5.0,62,0.00,,---,0.00,VWS V14.01,2013-01-21 02:54:00,
2013-01-20 20:55:00,31.8,20.3,30.22,NW,317,1.0,5.0,62,0.00,,---,0.00,VWS V14.01,2013-01-21 02:55:00,
2013-01-20 20:58:00,31.7,20.6,30.22,NW,317,1.0,2.0,63,0.00,,---,0.00,VWS V14.01,2013-01-21 02:58:00,
2013-01-20 20:59:00,31.7,20.6,30.22,NW,317,2.0,3.0,63,0.00,,---,0.00,VWS V14.01,2013-01-21 02:59:00,
2013-01-20 21:00:00,31.7,20.6,30.22,WNW,291,2.0,4.0,63,0.00,,---,0.00,VWS V14.01,2013-01-21 03:00:00,
2013-01-20 21:03:00,31.3,20.5,30.22,NW,314,3.0,5.0,64,0.00,,---,0.00,VWS V14.01,2013-01-21 03:03:00,
2013-01-20 21:04:00,31.3,20.5,30.22,NW,307,3.0,5.0,64,0.00,,---,0.00,VWS V14.01,2013-01-21 03:04:00,
2013-01-20 21:05:00,31.2,20.8,30.22,WNW,303,3.0,5.0,65,0.00,,---,0.00,VWS V14.01,2013-01-21 03:05:00,
2013-01-20 21:08:00,31.0,20.6,30.22,WNW,295,3.0,5.0,65,0.00,,---,0.00,VWS V14.01,2013-01-21 03:08:00,
2013-01-20 21:09:00,31.0,20.6,30.22,WNW,290,3.0,5.0,65,0.00,,---,0.00,VWS V14.01,2013-01-21 03:09:00,
2013-01-20 21:10:00,31.0,20.6,30.22,NW,304,2.0,6.0,65,0.00,,---,0.00,VWS V14.01,2013-01-21 03:10:00,
2013-01-20 21:13:00,30.7,20.3,30.22,NW,311,6.0,6.0,65,0.00,,---,0.00,VWS V14.01,2013-01-21 03:13:00,
2013-01-20 21:14:00,30.7,20.7,30.22,NW,311,5.0,6.0,66,0.00,,---,0.00,VWS V14.01,2013-01-21 03:14:00,
2013-01-20 21:15:00,30.7,20.3,30.22,WNW,295,4.0,6.0,65,0.00,,---,0.00,VWS V14.01,2013-01-21 03:15:00,
2013-01-20 21:19:00,30.8,20.4,30.22,NW,317,2.0,6.0,65,0.00,,---,0.00,VWS V14.01,2013-01-21 03:19:00,
2013-01-20 21:20:00,30.8,20.4,30.22,NW,325,2.0,6.0,65,0.00,,---,0.00,VWS V14.01,2013-01-21 03:20:00,
2013-01-20 21:24:00,30.7,20.3,30.22,NW,309,2.0,6.0,65,0.00,,---,0.00,VWS V14.01,2013-01-21 03:24:00,
2013-01-20 21:25:00,30.7,20.7,30.22,NNW,335,1.0,6.0,66,0.00,,---,0.00,VWS V14.01,2013-01-21 03:25:00,
2013-01-20 21:26:00,30.7,20.3,30.22,NNW,335,2.0,6.0,65,0.00,,---,0.00,VWS V14.01,2013-01-21 03:26:00,
2013-01-20 21:29:00,30.6,20.2,30.23,NW,309,3.0,8.0,65,0.00,,---,0.00,VWS V14.01,2013-01-21 03:29:00,
2013-01-20 21:30:00,30.6,20.2,30.23,NW,318,3.0,8.0,65,0.00,,---,0.00,VWS V14.01,2013-01-21 03:30:00,
2013-01-20 21:31:00,30.6,20.2,30.23,WNW,298,4.0,8.0,65,0.00,,---,0.00,VWS V14.01,2013-01-21 03:31:00,
2013-01-20 21:34:00,30.6,20.2,30.23,NW,316,5.0,8.0,65,0.00,,---,0.00,VWS V14.01,2013-01-21 03:34:00,
2013-01-20 21:35:00,30.6,20.2,30.23,NW,318,5.0,8.0,65,0.00,,---,0.00,VWS V14.01,2013-01-21 03:35:00,
2013-01-20 21:36:00,30.6,20.2,30.23,NW,325,4.0,8.0,65,0.00,,---,0.00,VWS V14.01,2013-01-21 03:36:00,
2013-01-20 21:39:00,30.6,20.2,30.23,NW,313,5.0,10.0,65,0.00,,---,0.00,VWS V14.01,2013-01-21 03:39:00,
2013-01-20 21:40:00,30.6,20.2,30.23,NW,318,4.0,10.0,65,0.00,,---,0.00,VWS V14.01,2013-01-21 03:40:00,
2013-01-20 21:41:00,30.6,20.2,30.23,NW,318,2.0,10.0,65,0.00,,---,0.00,VWS V14.01,2013-01-21 03:41:00,
2013-01-20 21:44:00,30.4,20.4,30.23,NW,316,3.0,10.0,66,0.00,,---,0.00,VWS V14.01,2013-01-21 03:44:00,
2013-01-20 21:45:00,30.3,20.3,30.23,WNW,299,5.0,10.0,66,0.00,,---,0.00,VWS V14.01,2013-01-21 03:45:00,
2013-01-20 21:46:00,30.3,20.3,30.23,WNW,286,5.0,10.0,66,0.00,,---,0.00,VWS V14.01,2013-01-21 03:46:00,
2013-01-20 21:49:00,30.3,20.3,30.23,WSW,258,4.0,10.0,66,0.00,,---,0.00,VWS V14.01,2013-01-21 03:49:00,
2013-01-20 21:50:00,30.2,20.2,30.23,NW,306,5.0,10.0,66,0.00,,---,0.00,VWS V14.01,2013-01-21 03:50:00,
2013-01-20 21:51:00,30.2,20.2,30.23,WNW,297,7.0,10.0,66,0.00,,---,0.00,VWS V14.01,2013-01-21 03:51:00,
2013-01-20 21:52:00,30.2,20.2,30.23,WNW,282,5.0,10.0,66,0.00,,---,0.00,VWS V14.01,2013-01-21 03:52:00,
2013-01-20 21:54:00,30.2,20.2,30.23,WNW,291,4.0,10.0,66,0.00,,---,0.00,VWS V14.01,2013-01-21 03:54:00,
2013-01-20 21:55:00,30.2,20.2,30.23,NW,312,6.0,10.0,66,0.00,,---,0.00,VWS V14.01,2013-01-21 03:55:00,
2013-01-20 21:56:00,30.2,20.2,30.23,WNW,289,4.0,10.0,66,0.00,,---,0.00,VWS V14.01,2013-01-21 03:56:00,
2013-01-20 21:57:00,30.2,20.2,30.23,WNW,301,3.0,10.0,66,0.00,,---,0.00,VWS V14.01,2013-01-21 03:57:00,
2013-01-20 21:59:00,30.1,20.1,30.24,WNW,303,5.0,8.0,66,0.00,,---,0.00,VWS V14.01,2013-01-21 03:59:00,
2013-01-20 22:00:00,30.1,20.5,30.24,NW,306,3.0,8.0,67,0.00,,---,0.00,VWS V14.01,2013-01-21 04:00:00,
2013-01-20 22:01:00,30.0,20.4,30.24,NW,307,3.0,8.0,67,0.00,,---,0.00,VWS V14.01,2013-01-21 04:01:00,
2013-01-20 22:03:00,29.9,20.3,30.24,WNW,302,5.0,8.0,67,0.00,,---,0.00,VWS V14.01,2013-01-21 04:03:00,
2013-01-20 22:04:00,29.8,20.2,30.24,NW,306,3.0,8.0,67,0.00,,---,0.00,VWS V14.01,2013-01-21 04:04:00,
2013-01-20 22:06:00,29.8,20.5,30.24,WNW,295,4.0,8.0,68,0.00,,---,0.00,VWS V14.01,2013-01-21 04:06:00,
2013-01-20 22:08:00,29.8,20.5,30.23,WNW,292,5.0,8.0,68,0.00,,---,0.00,VWS V14.01,2013-01-21 04:08:00,
2013-01-20 22:10:00,29.8,20.2,30.23,NW,305,6.0,8.0,67,0.00,,---,0.00,VWS V14.01,2013-01-21 04:10:00,
2013-01-20 22:11:00,29.8,20.5,30.23,NW,304,2.0,8.0,68,0.00,,---,0.00,VWS V14.01,2013-01-21 04:11:00,
2013-01-20 22:13:00,29.8,20.5,30.24,NW,310,4.0,8.0,68,0.00,,---,0.00,VWS V14.01,2013-01-21 04:13:00,
2013-01-20 22:15:00,29.7,20.5,30.24,NW,318,4.0,8.0,68,0.00,,---,0.00,VWS V14.01,2013-01-21 04:15:00,
2013-01-20 22:16:00,29.7,20.5,30.24,WNW,287,4.0,8.0,68,0.00,,---,0.00,VWS V14.01,2013-01-21 04:16:00,
2013-01-20 22:18:00,29.6,20.4,30.24,NW,318,6.0,8.0,68,0.00,,---,0.00,VWS V14.01,2013-01-21 04:18:00,
2013-01-20 22:19:00,29.6,20.4,30.24,WNW,294,3.0,10.0,68,0.00,,---,0.00,VWS V14.01,2013-01-21 04:19:00,
2013-01-20 22:21:00,29.6,20.4,30.24,WNW,285,3.0,10.0,68,0.00,,---,0.00,VWS V14.01,2013-01-21 04:21:00,
2013-01-20 22:23:00,29.6,20.4,30.24,WNW,291,8.0,10.0,68,0.00,,---,0.00,VWS V14.01,2013-01-21 04:23:00,
2013-01-20 22:25:00,29.6,20.4,30.24,WNW,301,3.0,10.0,68,0.00,,---,0.00,VWS V14.01,2013-01-21 04:25:00,
2013-01-20 22:27:00,29.5,20.6,30.24,WNW,291,8.0,10.0,69,0.00,,---,0.00,VWS V14.01,2013-01-21 04:27:00,
2013-01-20 22:28:00,29.4,20.5,30.24,West,281,4.0,4.0,69,0.00,,---,0.00,VWS V14.01,2013-01-21 04:28:00,
2013-01-20 22:30:00,29.4,20.2,30.24,West,277,3.0,5.0,68,0.00,,---,0.00,VWS V14.01,2013-01-21 04:30:00,
2013-01-20 22:32:00,29.4,20.2,30.24,NW,316,5.0,6.0,68,0.00,,---,0.00,VWS V14.01,2013-01-21 04:32:00,
2013-01-20 22:33:00,29.4,20.2,30.24,WNW,303,4.0,7.0,68,0.00,,---,0.00,VWS V14.01,2013-01-21 04:33:00,
2013-01-20 22:35:00,29.4,20.2,30.24,WNW,290,4.0,7.0,68,0.00,,---,0.00,VWS V14.01,2013-01-21 04:35:00,
2013-01-20 22:37:00,29.4,20.2,30.24,NW,315,5.0,7.0,68,0.00,,---,0.00,VWS V14.01,2013-01-21 04:37:00,
2013-01-20 22:38:00,29.4,20.2,30.24,NW,306,5.0,7.0,68,0.00,,---,0.00,VWS V14.01,2013-01-21 04:38:00,
2013-01-20 22:39:00,29.4,20.2,30.24,NW,314,5.0,7.0,68,0.00,,---,0.00,VWS V14.01,2013-01-21 04:39:00,
2013-01-20 22:41:00,29.4,20.2,30.24,NW,312,5.0,7.0,68,0.00,,---,0.00,VWS V14.01,2013-01-21 04:41:00,
2013-01-20 22:42:00,29.4,20.2,30.24,NW,316,3.0,7.0,68,0.00,,---,0.00,VWS V14.01,2013-01-21 04:42:00,
2013-01-20 22:43:00,29.3,20.1,30.24,WNW,301,3.0,7.0,68,0.00,,---,0.00,VWS V14.01,2013-01-21 04:43:00,
2013-01-20 22:44:00,29.3,20.1,30.24,WNW,301,3.0,7.0,68,0.00,,---,0.00,VWS V14.01,2013-01-21 04:44:00,
2013-01-20 22:46:00,29.3,19.7,30.24,WNW,293,5.0,8.0,67,0.00,,---,0.00,VWS V14.01,2013-01-21 04:46:00,
2013-01-20 22:47:00,29.3,19.7,30.24,WNW,287,4.0,8.0,67,0.00,,---,0.00,VWS V14.01,2013-01-21 04:47:00,
2013-01-20 22:49:00,29.3,19.7,30.24,WNW,295,5.0,8.0,67,0.00,,---,0.00,VWS V14.01,2013-01-21 04:49:00,
2013-01-20 22:51:00,29.3,20.1,30.24,WNW,295,4.0,8.0,68,0.00,,---,0.00,VWS V14.01,2013-01-21 04:51:00,
2013-01-20 22:52:00,29.3,20.1,30.24,NW,309,5.0,8.0,68,0.00,,---,0.00,VWS V14.01,2013-01-21 04:52:00,
2013-01-20 22:54:00,29.2,19.6,30.24,West,267,4.0,8.0,67,0.00,,---,0.00,VWS V14.01,2013-01-21 04:54:00,
2013-01-20 22:56:00,29.2,19.6,30.24,NW,310,5.0,10.0,67,0.00,,---,0.00,VWS V14.01,2013-01-21 04:56:00,
2013-01-20 22:57:00,29.2,19.6,30.24,NW,316,8.0,10.0,67,0.00,,---,0.00,VWS V14.01,2013-01-21 04:57:00,
2013-01-20 22:59:00,29.2,19.6,30.24,NW,307,5.0,8.0,67,0.00,,---,0.00,VWS V14.01,2013-01-21 04:59:00,
2013-01-20 23:00:00,29.2,19.6,30.24,NNW,335,4.0,8.0,67,0.00,,---,0.00,VWS V14.01,2013-01-21 05:00:00,
2013-01-20 23:01:00,29.2,19.6,30.24,West,269,2.0,8.0,67,0.00,,---,0.00,VWS V14.01,2013-01-21 05:01:00,
2013-01-20 23:05:00,29.1,19.9,30.24,NW,308,6.0,8.0,68,0.00,,---,0.00,VWS V14.01,2013-01-21 05:05:00,
2013-01-20 23:06:00,29.0,19.4,30.24,NW,304,8.0,8.0,67,0.00,,---,0.00,VWS V14.01,2013-01-21 05:06:00,
2013-01-20 23:30:00,28.8,19.2,30.24,WNW,291,3.0,11.0,67,0.00,,---,0.00,VWS V14.01,2013-01-21 05:30:00,
2013-01-20 23:37:00,28.6,19.0,30.24,NW,325,7.0,10.0,67,0.00,,---,0.00,VWS V14.01,2013-01-21 05:37:00,
2013-01-20 23:42:00,28.6,19.4,30.24,NW,325,7.0,10.0,68,0.00,,---,0.00,VWS V14.01,2013-01-21 05:42:00,
2013-01-20 23:47:00,28.6,19.4,30.24,NW,304,4.0,10.0,68,0.00,,---,0.00,VWS V14.01,2013-01-21 05:47:00,
2013-01-20 23:52:00,28.6,19.4,30.24,NW,315,6.0,10.0,68,0.00,,---,0.00,VWS V14.01,2013-01-21 05:52:00,
2013-01-20 23:53:00,28.5,19.3,30.24,NW,306,3.0,10.0,68,0.00,,---,0.00,VWS V14.01,2013-01-21 05:53:00,
2013-01-20 23:58:00,28.5,19.0,30.25,WNW,298,3.0,3.0,67,0.00,,---,0.00,VWS V14.01,2013-01-21 05:58:00,